Black River (Missouri), Leeper (07062500)

StateMissouriLatestGood (991 cfs)
RiverBlack RiverRatingObservedEstimated
Updated2021-02-25 9:30 (1 hour ago)Flood - The river is flooding. Obstacles can be treacherous or deadly. The river should be avoided at this stage for casual trips and definitely for the inexperienced. Trips should be attempted only with protective gear and equipment.Flood(none)3475
Discharge991 cfs (median: 892 cfs)High - The river is high and potentially dangerous, especially for the young and / or inexperienced. Normal stream obstacles are sometimes difficult to navigate. Extended distances can be attempted, but canoe travel may not be advisable.High(none)1150
Height3.79 feetGood - Conditions are ideal for a canoe or kayak. Boats typically will drag on fewer than one-quarter of riffles, if at all, and portages are unnecessary or rare. Normal float lengths can be attempted without a problem.Good(none)713
TrendFalling (rising over 24 hours)Low - River is low but can still be floated. Some riffles are okay but most come with significant dragging and might need a portage. Float lengths should be reduced to accommodate low flow, dragging, and portages.Low(none)418
USGSExternal icon USGS Site (External icon Google Maps)Poor - River is too low to float comfortably. Most or all riffles will drag or must be portaged and some obstacles (such as slick shelf rock) cause undue problems. Avoid the river at this stage for casual paddling trips.Poor(none)219

Trending Data

Plot Image

Trips for Black River (Missouri), Leeper (07062500)

DateStartEndDistanceConditionDischargeHeightFishingDetails

A total of 0 rows are displayed.

Condition Descriptions

Fishing Conditions

Fish Species

Notes

Classic Trip List

The classic River Trips application is still available for use. It is updated with the new system using a data retrofit. It is no longer maintained. The original River Trips application is no longer updated (as of 1 Dec 2016) but can be checked for errors or for the condition of the data before it was converted to the new system.

Gauge Data Table

ObservationHeightDischargeMaximum
Discharge
Minimum
Discharge
Mean
Discharge
P05P10P20P25P50
(Median)
P75P80P90P95
2021-02-25 09:30 3.79 991 4820 (1950) 234 (1963) 1240 363 435 512 547 892 1160 1620 3570 4060
2021-02-25 08:30 3.80 996 4820 (1950) 234 (1963) 1240 363 435 512 547 892 1160 1620 3570 4060
2021-02-25 07:30 3.79 991 4820 (1950) 234 (1963) 1240 363 435 512 547 892 1160 1620 3570 4060
2021-02-25 06:30 3.80 996 4820 (1950) 234 (1963) 1240 363 435 512 547 892 1160 1620 3570 4060
2021-02-25 05:30 3.78 985 4820 (1950) 234 (1963) 1240 363 435 512 547 892 1160 1620 3570 4060
2021-02-25 04:30 3.80 996 4820 (1950) 234 (1963) 1240 363 435 512 547 892 1160 1620 3570 4060
2021-02-25 03:30 3.79 991 4820 (1950) 234 (1963) 1240 363 435 512 547 892 1160 1620 3570 4060
2021-02-25 02:30 3.81 1000 4820 (1950) 234 (1963) 1240 363 435 512 547 892 1160 1620 3570 4060
2021-02-25 01:30 3.79 991 4820 (1950) 234 (1963) 1240 363 435 512 547 892 1160 1620 3570 4060
2021-02-25 00:30 3.79 991 4820 (1950) 234 (1963) 1240 363 435 512 547 892 1160 1620 3570 4060
2021-02-24 23:30 3.81 1000 4820 (1950) 237 (1963) 1210 344 408 499 531 925 1230 1370 3430 4060
2021-02-24 22:30 3.80 996 4820 (1950) 237 (1963) 1210 344 408 499 531 925 1230 1370 3430 4060
2021-02-24 21:30 3.80 996 4820 (1950) 237 (1963) 1210 344 408 499 531 925 1230 1370 3430 4060
2021-02-24 20:30 3.80 996 4820 (1950) 237 (1963) 1210 344 408 499 531 925 1230 1370 3430 4060
2021-02-24 19:30 3.79 991 4820 (1950) 237 (1963) 1210 344 408 499 531 925 1230 1370 3430 4060
2021-02-24 18:30 3.78 985 4820 (1950) 237 (1963) 1210 344 408 499 531 925 1230 1370 3430 4060
2021-02-24 17:30 3.77 980 4820 (1950) 237 (1963) 1210 344 408 499 531 925 1230 1370 3430 4060
2021-02-24 16:30 3.78 985 4820 (1950) 237 (1963) 1210 344 408 499 531 925 1230 1370 3430 4060
2021-02-24 15:30 3.76 974 4820 (1950) 237 (1963) 1210 344 408 499 531 925 1230 1370 3430 4060
2021-02-24 14:30 3.78 985 4820 (1950) 237 (1963) 1210 344 408 499 531 925 1230 1370 3430 4060
2021-02-24 13:30 3.76 974 4820 (1950) 237 (1963) 1210 344 408 499 531 925 1230 1370 3430 4060
2021-02-24 12:30 3.75 968 4820 (1950) 237 (1963) 1210 344 408 499 531 925 1230 1370 3430 4060
2021-02-24 11:30 3.73 957 4820 (1950) 237 (1963) 1210 344 408 499 531 925 1230 1370 3430 4060
2021-02-24 10:30 3.71 946 4820 (1950) 237 (1963) 1210 344 408 499 531 925 1230 1370 3430 4060
2021-02-24 09:30 3.71 946 4820 (1950) 237 (1963) 1210 344 408 499 531 925 1230 1370 3430 4060
2021-02-24 08:30 3.72 952 4820 (1950) 237 (1963) 1210 344 408 499 531 925 1230 1370 3430 4060
2021-02-24 07:30 3.72 952 4820 (1950) 237 (1963) 1210 344 408 499 531 925 1230 1370 3430 4060
2021-02-24 06:30 3.71 946 4820 (1950) 237 (1963) 1210 344 408 499 531 925 1230 1370 3430 4060
2021-02-24 05:30 3.72 952 4820 (1950) 237 (1963) 1210 344 408 499 531 925 1230 1370 3430 4060
2021-02-24 04:30 3.71 946 4820 (1950) 237 (1963) 1210 344 408 499 531 925 1230 1370 3430 4060
2021-02-24 03:30 3.70 941 4820 (1950) 237 (1963) 1210 344 408 499 531 925 1230 1370 3430 4060
2021-02-24 02:30 3.71 946 4820 (1950) 237 (1963) 1210 344 408 499 531 925 1230 1370 3430 4060
2021-02-24 01:30 3.70 941 4820 (1950) 237 (1963) 1210 344 408 499 531 925 1230 1370 3430 4060
2021-02-24 00:30 3.67 924 4820 (1950) 237 (1963) 1210 344 408 499 531 925 1230 1370 3430 4060
2021-02-23 23:30 3.65 913 4640 (1950) 227 (1972) 1220 342 410 512 532 873 1400 1550 3070 4020
2021-02-23 22:30 3.64 908 4640 (1950) 227 (1972) 1220 342 410 512 532 873 1400 1550 3070 4020
2021-02-23 21:30 3.63 902 4640 (1950) 227 (1972) 1220 342 410 512 532 873 1400 1550 3070 4020
2021-02-23 20:30 3.61 892 4640 (1950) 227 (1972) 1220 342 410 512 532 873 1400 1550 3070 4020
2021-02-23 19:30 3.59 881 4640 (1950) 227 (1972) 1220 342 410 512 532 873 1400 1550 3070 4020
2021-02-23 18:30 3.57 870 4640 (1950) 227 (1972) 1220 342 410 512 532 873 1400 1550 3070 4020
2021-02-23 17:30 3.53 849 4640 (1950) 227 (1972) 1220 342 410 512 532 873 1400 1550 3070 4020
2021-02-23 16:30 3.52 844 4640 (1950) 227 (1972) 1220 342 410 512 532 873 1400 1550 3070 4020
2021-02-23 15:30 3.48 822 4640 (1950) 227 (1972) 1220 342 410 512 532 873 1400 1550 3070 4020
2021-02-23 14:30 3.44 802 4640 (1950) 227 (1972) 1220 342 410 512 532 873 1400 1550 3070 4020
2021-02-23 13:30 3.41 786 4640 (1950) 227 (1972) 1220 342 410 512 532 873 1400 1550 3070 4020
2021-02-23 12:30 3.36 761 4640 (1950) 227 (1972) 1220 342 410 512 532 873 1400 1550 3070 4020
2021-02-23 11:30 3.27 716 4640 (1950) 227 (1972) 1220 342 410 512 532 873 1400 1550 3070 4020
2021-02-23 10:30 3.23 696 4640 (1950) 227 (1972) 1220 342 410 512 532 873 1400 1550 3070 4020
2021-02-23 09:30 3.22 691 4640 (1950) 227 (1972) 1220 342 410 512 532 873 1400 1550 3070 4020
2021-02-23 08:30 3.24 701 4640 (1950) 227 (1972) 1220 342 410 512 532 873 1400 1550 3070 4020
2021-02-23 07:30 3.25 706 4640 (1950) 227 (1972) 1220 342 410 512 532 873 1400 1550 3070 4020
2021-02-23 06:30 3.25 706 4640 (1950) 227 (1972) 1220 342 410 512 532 873 1400 1550 3070 4020
2021-02-23 05:30 3.25 706 4640 (1950) 227 (1972) 1220 342 410 512 532 873 1400 1550 3070 4020
2021-02-23 04:30 3.26 711 4640 (1950) 227 (1972) 1220 342 410 512 532 873 1400 1550 3070 4020
2021-02-23 03:30 3.26 711 4640 (1950) 227 (1972) 1220 342 410 512 532 873 1400 1550 3070 4020
2021-02-23 02:30 3.25 706 4640 (1950) 227 (1972) 1220 342 410 512 532 873 1400 1550 3070 4020
2021-02-23 01:30 3.27 716 4640 (1950) 227 (1972) 1220 342 410 512 532 873 1400 1550 3070 4020
2021-02-23 00:30 3.28 721 4640 (1950) 227 (1972) 1220 342 410 512 532 873 1400 1550 3070 4020
2021-02-22 23:30 3.28 721 4640 (1950) 226 (1972) 1290 298 424 476 539 833 1830 2260 3270 4050
2021-02-22 22:30 3.29 725 4640 (1950) 226 (1972) 1290 298 424 476 539 833 1830 2260 3270 4050
2021-02-22 21:30 3.30 730 4640 (1950) 226 (1972) 1290 298 424 476 539 833 1830 2260 3270 4050
2021-02-22 20:30 3.30 730 4640 (1950) 226 (1972) 1290 298 424 476 539 833 1830 2260 3270 4050
2021-02-22 19:30 3.26 711 4640 (1950) 226 (1972) 1290 298 424 476 539 833 1830 2260 3270 4050
2021-02-22 18:30 3.24 701 4640 (1950) 226 (1972) 1290 298 424 476 539 833 1830 2260 3270 4050
2021-02-22 17:30 3.23 696 4640 (1950) 226 (1972) 1290 298 424 476 539 833 1830 2260 3270 4050
2021-02-22 16:30 3.24 701 4640 (1950) 226 (1972) 1290 298 424 476 539 833 1830 2260 3270 4050
2021-02-22 15:30 3.24 701 4640 (1950) 226 (1972) 1290 298 424 476 539 833 1830 2260 3270 4050
2021-02-22 14:30 3.28 721 4640 (1950) 226 (1972) 1290 298 424 476 539 833 1830 2260 3270 4050
2021-02-22 13:30 3.30 730 4640 (1950) 226 (1972) 1290 298 424 476 539 833 1830 2260 3270 4050
2021-02-22 12:30 3.36 761 4640 (1950) 226 (1972) 1290 298 424 476 539 833 1830 2260 3270 4050
2021-02-22 11:30 3.40 781 4640 (1950) 226 (1972) 1290 298 424 476 539 833 1830 2260 3270 4050
2021-02-22 10:30 3.44 802 4640 (1950) 226 (1972) 1290 298 424 476 539 833 1830 2260 3270 4050
2021-02-22 09:30 3.47 817 4640 (1950) 226 (1972) 1290 298 424 476 539 833 1830 2260 3270 4050
2021-02-22 08:30 3.48 822 4640 (1950) 226 (1972) 1290 298 424 476 539 833 1830 2260 3270 4050
2021-02-22 07:30 3.48 822 4640 (1950) 226 (1972) 1290 298 424 476 539 833 1830 2260 3270 4050
2021-02-22 06:30 3.48 822 4640 (1950) 226 (1972) 1290 298 424 476 539 833 1830 2260 3270 4050
2021-02-22 05:30 3.49 828 4640 (1950) 226 (1972) 1290 298 424 476 539 833 1830 2260 3270 4050
2021-02-22 04:30 3.49 828 4640 (1950) 226 (1972) 1290 298 424 476 539 833 1830 2260 3270 4050
2021-02-22 03:30 3.46 812 4640 (1950) 226 (1972) 1290 298 424 476 539 833 1830 2260 3270 4050
2021-02-22 02:30 3.47 817 4640 (1950) 226 (1972) 1290 298 424 476 539 833 1830 2260 3270 4050
2021-02-22 01:30 3.48 822 4640 (1950) 226 (1972) 1290 298 424 476 539 833 1830 2260 3270 4050
2021-02-22 00:30 3.47 817 4640 (1950) 226 (1972) 1290 298 424 476 539 833 1830 2260 3270 4050
2021-02-21 23:30 3.48 822 4640 (1950) 230 (1972) 1280 300 404 479 511 853 1590 1990 3280 3940
2021-02-21 22:30 3.47 817 4640 (1950) 230 (1972) 1280 300 404 479 511 853 1590 1990 3280 3940
2021-02-21 21:30 3.48 822 4640 (1950) 230 (1972) 1280 300 404 479 511 853 1590 1990 3280 3940
2021-02-21 20:30 3.48 822 4640 (1950) 230 (1972) 1280 300 404 479 511 853 1590 1990 3280 3940
2021-02-21 19:30 3.46 812 4640 (1950) 230 (1972) 1280 300 404 479 511 853 1590 1990 3280 3940
2021-02-21 18:30 3.47 817 4640 (1950) 230 (1972) 1280 300 404 479 511 853 1590 1990 3280 3940
2021-02-21 17:30 3.47 817 4640 (1950) 230 (1972) 1280 300 404 479 511 853 1590 1990 3280 3940
2021-02-21 16:30 3.46 812 4640 (1950) 230 (1972) 1280 300 404 479 511 853 1590 1990 3280 3940
2021-02-21 15:30 3.46 812 4640 (1950) 230 (1972) 1280 300 404 479 511 853 1590 1990 3280 3940
2021-02-21 14:30 3.46 812 4640 (1950) 230 (1972) 1280 300 404 479 511 853 1590 1990 3280 3940
2021-02-21 13:30 3.46 812 4640 (1950) 230 (1972) 1280 300 404 479 511 853 1590 1990 3280 3940
2021-02-21 12:30 3.47 817 4640 (1950) 230 (1972) 1280 300 404 479 511 853 1590 1990 3280 3940
2021-02-21 11:30 3.47 817 4640 (1950) 230 (1972) 1280 300 404 479 511 853 1590 1990 3280 3940
2021-02-21 10:30 3.46 812 4640 (1950) 230 (1972) 1280 300 404 479 511 853 1590 1990 3280 3940
2021-02-21 09:30 3.48 822 4640 (1950) 230 (1972) 1280 300 404 479 511 853 1590 1990 3280 3940
2021-02-21 08:30 3.48 822 4640 (1950) 230 (1972) 1280 300 404 479 511 853 1590 1990 3280 3940
2021-02-21 07:30 3.48 822 4640 (1950) 230 (1972) 1280 300 404 479 511 853 1590 1990 3280 3940
2021-02-21 06:30 3.48 822 4640 (1950) 230 (1972) 1280 300 404 479 511 853 1590 1990 3280 3940
2021-02-21 05:30 3.49 828 4640 (1950) 230 (1972) 1280 300 404 479 511 853 1590 1990 3280 3940
2021-02-21 04:30 3.48 822 4640 (1950) 230 (1972) 1280 300 404 479 511 853 1590 1990 3280 3940
2021-02-21 03:30 3.49 828 4640 (1950) 230 (1972) 1280 300 404 479 511 853 1590 1990 3280 3940
2021-02-21 02:30 3.50 833 4640 (1950) 230 (1972) 1280 300 404 479 511 853 1590 1990 3280 3940
2021-02-21 01:30 3.48 822 4640 (1950) 230 (1972) 1280 300 404 479 511 853 1590 1990 3280 3940
2021-02-21 00:30 3.49 828 4640 (1950) 230 (1972) 1280 300 404 479 511 853 1590 1990 3280 3940
2021-02-20 23:30 3.49 828 4350 (1949) 228 (1972) 1340 307 404 485 503 797 1950 2500 3450 3840
2021-02-20 22:30 3.49 828 4350 (1949) 228 (1972) 1340 307 404 485 503 797 1950 2500 3450 3840
2021-02-20 21:30 3.49 828 4350 (1949) 228 (1972) 1340 307 404 485 503 797 1950 2500 3450 3840
2021-02-20 20:30 3.49 828 4350 (1949) 228 (1972) 1340 307 404 485 503 797 1950 2500 3450 3840
2021-02-20 19:30 3.48 822 4350 (1949) 228 (1972) 1340 307 404 485 503 797 1950 2500 3450 3840
2021-02-20 18:30 3.48 822 4350 (1949) 228 (1972) 1340 307 404 485 503 797 1950 2500 3450 3840
2021-02-20 17:30 3.46 812 4350 (1949) 228 (1972) 1340 307 404 485 503 797 1950 2500 3450 3840
2021-02-20 16:30 3.46 812 4350 (1949) 228 (1972) 1340 307 404 485 503 797 1950 2500 3450 3840
2021-02-20 15:30 3.46 812 4350 (1949) 228 (1972) 1340 307 404 485 503 797 1950 2500 3450 3840
2021-02-20 14:30 3.46 812 4350 (1949) 228 (1972) 1340 307 404 485 503 797 1950 2500 3450 3840
2021-02-20 13:30 3.47 817 4350 (1949) 228 (1972) 1340 307 404 485 503 797 1950 2500 3450 3840
2021-02-20 12:30 3.45 807 4350 (1949) 228 (1972) 1340 307 404 485 503 797 1950 2500 3450 3840
2021-02-20 11:30 3.46 812 4350 (1949) 228 (1972) 1340 307 404 485 503 797 1950 2500 3450 3840
2021-02-20 10:30 3.47 817 4350 (1949) 228 (1972) 1340 307 404 485 503 797 1950 2500 3450 3840
2021-02-20 09:30 3.47 817 4350 (1949) 228 (1972) 1340 307 404 485 503 797 1950 2500 3450 3840
2021-02-20 08:30 3.49 828 4350 (1949) 228 (1972) 1340 307 404 485 503 797 1950 2500 3450 3840
2021-02-20 07:30 3.49 828 4350 (1949) 228 (1972) 1340 307 404 485 503 797 1950 2500 3450 3840
2021-02-20 06:30 3.49 828 4350 (1949) 228 (1972) 1340 307 404 485 503 797 1950 2500 3450 3840
2021-02-20 05:30 3.48 822 4350 (1949) 228 (1972) 1340 307 404 485 503 797 1950 2500 3450 3840
2021-02-20 04:30 3.49 828 4350 (1949) 228 (1972) 1340 307 404 485 503 797 1950 2500 3450 3840
2021-02-20 03:30 3.50 833 4350 (1949) 228 (1972) 1340 307 404 485 503 797 1950 2500 3450 3840
2021-02-20 02:30 3.50 833 4350 (1949) 228 (1972) 1340 307 404 485 503 797 1950 2500 3450 3840
2021-02-20 01:30 3.49 828 4350 (1949) 228 (1972) 1340 307 404 485 503 797 1950 2500 3450 3840
2021-02-20 00:30 3.49 828 4350 (1949) 228 (1972) 1340 307 404 485 503 797 1950 2500 3450 3840
2021-02-19 23:30 3.48 822 4440 (1949) 230 (1972) 1310 326 399 467 505 827 1720 2400 3430 3790
2021-02-19 22:30 3.48 822 4440 (1949) 230 (1972) 1310 326 399 467 505 827 1720 2400 3430 3790
2021-02-19 21:30 3.47 817 4440 (1949) 230 (1972) 1310 326 399 467 505 827 1720 2400 3430 3790
2021-02-19 20:30 3.49 828 4440 (1949) 230 (1972) 1310 326 399 467 505 827 1720 2400 3430 3790
2021-02-19 19:30 3.47 817 4440 (1949) 230 (1972) 1310 326 399 467 505 827 1720 2400 3430 3790
2021-02-19 18:30 3.46 812 4440 (1949) 230 (1972) 1310 326 399 467 505 827 1720 2400 3430 3790
2021-02-19 17:30 3.48 822 4440 (1949) 230 (1972) 1310 326 399 467 505 827 1720 2400 3430 3790
2021-02-19 16:30 3.46 812 4440 (1949) 230 (1972) 1310 326 399 467 505 827 1720 2400 3430 3790
2021-02-19 15:30 3.45 807 4440 (1949) 230 (1972) 1310 326 399 467 505 827 1720 2400 3430 3790
2021-02-19 14:30 3.43 797 4440 (1949) 230 (1972) 1310 326 399 467 505 827 1720 2400 3430 3790
2021-02-19 13:30 3.41 786 4440 (1949) 230 (1972) 1310 326 399 467 505 827 1720 2400 3430 3790
2021-02-19 12:30 3.39 776 4440 (1949) 230 (1972) 1310 326 399 467 505 827 1720 2400 3430 3790
2021-02-19 11:30 3.38 771 4440 (1949) 230 (1972) 1310 326 399 467 505 827 1720 2400 3430 3790
2021-02-19 10:30 3.38 771 4440 (1949) 230 (1972) 1310 326 399 467 505 827 1720 2400 3430 3790
2021-02-19 09:30 3.39 776 4440 (1949) 230 (1972) 1310 326 399 467 505 827 1720 2400 3430 3790
2021-02-19 08:30 3.38 771 4440 (1949) 230 (1972) 1310 326 399 467 505 827 1720 2400 3430 3790
2021-02-19 07:30 3.37 766 4440 (1949) 230 (1972) 1310 326 399 467 505 827 1720 2400 3430 3790
2021-02-19 06:30 3.39 776 4440 (1949) 230 (1972) 1310 326 399 467 505 827 1720 2400 3430 3790
2021-02-19 05:30 3.38 771 4440 (1949) 230 (1972) 1310 326 399 467 505 827 1720 2400 3430 3790
2021-02-19 04:30 3.39 776 4440 (1949) 230 (1972) 1310 326 399 467 505 827 1720 2400 3430 3790
2021-02-19 03:30 3.37 766 4440 (1949) 230 (1972) 1310 326 399 467 505 827 1720 2400 3430 3790
2021-02-19 02:30 3.38 771 4440 (1949) 230 (1972) 1310 326 399 467 505 827 1720 2400 3430 3790
2021-02-19 01:30 3.38 771 4440 (1949) 230 (1972) 1310 326 399 467 505 827 1720 2400 3430 3790
2021-02-19 00:30 3.37 766 4440 (1949) 230 (1972) 1310 326 399 467 505 827 1720 2400 3430 3790
2021-02-18 23:30 3.36 761 4440 (1949) 235 (1972) 1310 355 399 473 506 769 1440 2660 3480 3740
2021-02-18 22:30 3.35 756 4440 (1949) 235 (1972) 1310 355 399 473 506 769 1440 2660 3480 3740
2021-02-18 21:30 3.35 756 4440 (1949) 235 (1972) 1310 355 399 473 506 769 1440 2660 3480 3740
2021-02-18 20:30 3.33 746 4440 (1949) 235 (1972) 1310 355 399 473 506 769 1440 2660 3480 3740
2021-02-18 19:30 3.31 735 4440 (1949) 235 (1972) 1310 355 399 473 506 769 1440 2660 3480 3740
2021-02-18 18:30 3.30 730 4440 (1949) 235 (1972) 1310 355 399 473 506 769 1440 2660 3480 3740
2021-02-18 17:30 3.27 716 4440 (1949) 235 (1972) 1310 355 399 473 506 769 1440 2660 3480 3740
2021-02-18 16:30 3.24 701 4440 (1949) 235 (1972) 1310 355 399 473 506 769 1440 2660 3480 3740
2021-02-18 15:30 3.20 681 4440 (1949) 235 (1972) 1310 355 399 473 506 769 1440 2660 3480 3740
2021-02-18 14:30 3.13 648 4440 (1949) 235 (1972) 1310 355 399 473 506 769 1440 2660 3480 3740
2021-02-18 13:30 3.07 619 4440 (1949) 235 (1972) 1310 355 399 473 506 769 1440 2660 3480 3740
2021-02-18 12:30 2.96 569 4440 (1949) 235 (1972) 1310 355 399 473 506 769 1440 2660 3480 3740
2021-02-18 11:30 2.89 537 4440 (1949) 235 (1972) 1310 355 399 473 506 769 1440 2660 3480 3740
2021-02-18 10:30 2.86 524 4440 (1949) 235 (1972) 1310 355 399 473 506 769 1440 2660 3480 3740
2021-02-18 09:30 2.87 528 4440 (1949) 235 (1972) 1310 355 399 473 506 769 1440 2660 3480 3740
2021-02-18 08:30 2.88 533 4440 (1949) 235 (1972) 1310 355 399 473 506 769 1440 2660 3480 3740
2021-02-18 07:30 2.88 533 4440 (1949) 235 (1972) 1310 355 399 473 506 769 1440 2660 3480 3740
2021-02-18 06:30 2.88 533 4440 (1949) 235 (1972) 1310 355 399 473 506 769 1440 2660 3480 3740
2021-02-18 05:30 2.88 533 4440 (1949) 235 (1972) 1310 355 399 473 506 769 1440 2660 3480 3740
2021-02-18 04:30 2.86 524 4440 (1949) 235 (1972) 1310 355 399 473 506 769 1440 2660 3480 3740
2021-02-18 03:30 2.87 528 4440 (1949) 235 (1972) 1310 355 399 473 506 769 1440 2660 3480 3740
2021-02-18 02:30 2.88 533 4440 (1949) 235 (1972) 1310 355 399 473 506 769 1440 2660 3480 3740
2021-02-18 01:30 2.88 533 4440 (1949) 235 (1972) 1310 355 399 473 506 769 1440 2660 3480 3740
2021-02-18 00:30 2.88 533 4440 (1949) 235 (1972) 1310 355 399 473 506 769 1440 2660 3480 3740
2021-02-17 23:30 2.88 533 4540 (1949) 238 (1972) 1260 318 399 456 519 731 1480 2130 3550 3820
2021-02-17 22:30 2.89 537 4540 (1949) 238 (1972) 1260 318 399 456 519 731 1480 2130 3550 3820
2021-02-17 21:30 2.89 537 4540 (1949) 238 (1972) 1260 318 399 456 519 731 1480 2130 3550 3820
2021-02-17 20:30 2.88 533 4540 (1949) 238 (1972) 1260 318 399 456 519 731 1480 2130 3550 3820
2021-02-17 19:30 2.89 537 4540 (1949) 238 (1972) 1260 318 399 456 519 731 1480 2130 3550 3820
2021-02-17 18:30 2.89 537 4540 (1949) 238 (1972) 1260 318 399 456 519 731 1480 2130 3550 3820
2021-02-17 17:30 2.89 537 4540 (1949) 238 (1972) 1260 318 399 456 519 731 1480 2130 3550 3820
2021-02-17 16:30 2.89 537 4540 (1949) 238 (1972) 1260 318 399 456 519 731 1480 2130 3550 3820
2021-02-17 15:30 2.88 533 4540 (1949) 238 (1972) 1260 318 399 456 519 731 1480 2130 3550 3820
2021-02-17 14:30 2.88 533 4540 (1949) 238 (1972) 1260 318 399 456 519 731 1480 2130 3550 3820
2021-02-17 13:30 2.90 542 4540 (1949) 238 (1972) 1260 318 399 456 519 731 1480 2130 3550 3820
2021-02-17 12:30 2.90 542 4540 (1949) 238 (1972) 1260 318 399 456 519 731 1480 2130 3550 3820
2021-02-17 11:30 2.90 542 4540 (1949) 238 (1972) 1260 318 399 456 519 731 1480 2130 3550 3820
2021-02-17 10:30 2.91 546 4540 (1949) 238 (1972) 1260 318 399 456 519 731 1480 2130 3550 3820
2021-02-17 09:30 2.91 546 4540 (1949) 238 (1972) 1260 318 399 456 519 731 1480 2130 3550 3820
2021-02-17 08:30 2.92 551 4540 (1949) 238 (1972) 1260 318 399 456 519 731 1480 2130 3550 3820
2021-02-17 07:30 2.91 546 4540 (1949) 238 (1972) 1260 318 399 456 519 731 1480 2130 3550 3820
2021-02-17 06:30 2.93 555 4540 (1949) 238 (1972) 1260 318 399 456 519 731 1480 2130 3550 3820
2021-02-17 05:30 2.93 555 4540 (1949) 238 (1972) 1260 318 399 456 519 731 1480 2130 3550 3820
2021-02-17 04:30 2.92 551 4540 (1949) 238 (1972) 1260 318 399 456 519 731 1480 2130 3550 3820
2021-02-17 03:30 2.93 555 4540 (1949) 238 (1972) 1260 318 399 456 519 731 1480 2130 3550 3820
2021-02-17 02:30 2.93 555 4540 (1949) 238 (1972) 1260 318 399 456 519 731 1480 2130 3550 3820
2021-02-17 01:30 2.95 564 4540 (1949) 238 (1972) 1260 318 399 456 519 731 1480 2130 3550 3820
2021-02-17 00:30 2.96 569 4540 (1949) 238 (1972) 1260 318 399 456 519 731 1480 2130 3550 3820
2021-02-16 23:30 2.96 569 4540 (1949) 243 (1972) 1210 313 389 463 485 731 1330 1610 3420 3880
2021-02-16 22:30 2.99 582 4540 (1949) 243 (1972) 1210 313 389 463 485 731 1330 1610 3420 3880
2021-02-16 21:30 3.00 587 4540 (1949) 243 (1972) 1210 313 389 463 485 731 1330 1610 3420 3880
2021-02-16 20:30 3.02 596 4540 (1949) 243 (1972) 1210 313 389 463 485 731 1330 1610 3420 3880
2021-02-16 19:30 3.06 615 4540 (1949) 243 (1972) 1210 313 389 463 485 731 1330 1610 3420 3880
2021-02-16 18:30 3.10 633 4540 (1949) 243 (1972) 1210 313 389 463 485 731 1330 1610 3420 3880
2021-02-16 17:30 3.15 657 4540 (1949) 243 (1972) 1210 313 389 463 485 731 1330 1610 3420 3880
2021-02-16 16:30 3.23 696 4540 (1949) 243 (1972) 1210 313 389 463 485 731 1330 1610 3420 3880
2021-02-16 15:30 3.30 730 4540 (1949) 243 (1972) 1210 313 389 463 485 731 1330 1610 3420 3880
2021-02-16 14:30 3.34 751 4540 (1949) 243 (1972) 1210 313 389 463 485 731 1330 1610 3420 3880
2021-02-16 13:30 3.35 756 4540 (1949) 243 (1972) 1210 313 389 463 485 731 1330 1610 3420 3880
2021-02-16 12:30 3.36 761 4540 (1949) 243 (1972) 1210 313 389 463 485 731 1330 1610 3420 3880
2021-02-16 11:30 3.37 766 4540 (1949) 243 (1972) 1210 313 389 463 485 731 1330 1610 3420 3880
2021-02-16 10:30 3.38 771 4540 (1949) 243 (1972) 1210 313 389 463 485 731 1330 1610 3420 3880
2021-02-16 09:30 3.38 771 4540 (1949) 243 (1972) 1210 313 389 463 485 731 1330 1610 3420 3880
2021-02-16 08:30 3.37 766 4540 (1949) 243 (1972) 1210 313 389 463 485 731 1330 1610 3420 3880
2021-02-16 07:30 3.38 771 4540 (1949) 243 (1972) 1210 313 389 463 485 731 1330 1610 3420 3880
2021-02-16 06:30 3.39 776 4540 (1949) 243 (1972) 1210 313 389 463 485 731 1330 1610 3420 3880
2021-02-16 05:30 3.39 776 4540 (1949) 243 (1972) 1210 313 389 463 485 731 1330 1610 3420 3880
2021-02-16 04:30 3.38 771 4540 (1949) 243 (1972) 1210 313 389 463 485 731 1330 1610 3420 3880
2021-02-16 03:30 3.38 771 4540 (1949) 243 (1972) 1210 313 389 463 485 731 1330 1610 3420 3880
2021-02-16 02:30 3.38 771 4540 (1949) 243 (1972) 1210 313 389 463 485 731 1330 1610 3420 3880
2021-02-16 01:30 3.39 776 4540 (1949) 243 (1972) 1210 313 389 463 485 731 1330 1610 3420 3880
2021-02-16 00:30 3.38 771 4540 (1949) 243 (1972) 1210 313 389 463 485 731 1330 1610 3420 3880
2021-02-15 23:30 3.38 771 3880 (1969) 252 (1954) 1180 299 379 459 476 735 1340 1560 3350 3650
2021-02-15 22:30 3.38 771 3880 (1969) 252 (1954) 1180 299 379 459 476 735 1340 1560 3350 3650
2021-02-15 21:30 3.38 771 3880 (1969) 252 (1954) 1180 299 379 459 476 735 1340 1560 3350 3650
2021-02-15 20:30 3.40 781 3880 (1969) 252 (1954) 1180 299 379 459 476 735 1340 1560 3350 3650
2021-02-15 19:30 3.39 776 3880 (1969) 252 (1954) 1180 299 379 459 476 735 1340 1560 3350 3650
2021-02-15 18:30 3.40 781 3880 (1969) 252 (1954) 1180 299 379 459 476 735 1340 1560 3350 3650
2021-02-15 17:30 3.40 781 3880 (1969) 252 (1954) 1180 299 379 459 476 735 1340 1560 3350 3650
2021-02-15 16:30 3.42 791 3880 (1969) 252 (1954) 1180 299 379 459 476 735 1340 1560 3350 3650
2021-02-15 15:30 3.41 786 3880 (1969) 252 (1954) 1180 299 379 459 476 735 1340 1560 3350 3650
2021-02-15 14:30 3.40 781 3880 (1969) 252 (1954) 1180 299 379 459 476 735 1340 1560 3350 3650
2021-02-15 13:30 3.39 776 3880 (1969) 252 (1954) 1180 299 379 459 476 735 1340 1560 3350 3650
2021-02-15 12:30 3.41 786 3880 (1969) 252 (1954) 1180 299 379 459 476 735 1340 1560 3350 3650
2021-02-15 11:30 3.42 791 3880 (1969) 252 (1954) 1180 299 379 459 476 735 1340 1560 3350 3650
2021-02-15 10:30 3.41 786 3880 (1969) 252 (1954) 1180 299 379 459 476 735 1340 1560 3350 3650
2021-02-15 09:30 3.40 781 3880 (1969) 252 (1954) 1180 299 379 459 476 735 1340 1560 3350 3650
2021-02-15 08:30 3.38 771 3880 (1969) 252 (1954) 1180 299 379 459 476 735 1340 1560 3350 3650
2021-02-15 07:30 3.38 771 3880 (1969) 252 (1954) 1180 299 379 459 476 735 1340 1560 3350 3650
2021-02-15 06:30 3.38 771 3880 (1969) 252 (1954) 1180 299 379 459 476 735 1340 1560 3350 3650
2021-02-15 05:30 3.40 781 3880 (1969) 252 (1954) 1180 299 379 459 476 735 1340 1560 3350 3650
2021-02-15 04:30 3.40 781 3880 (1969) 252 (1954) 1180 299 379 459 476 735 1340 1560 3350 3650
2021-02-15 03:30 3.38 771 3880 (1969) 252 (1954) 1180 299 379 459 476 735 1340 1560 3350 3650
2021-02-15 02:30 3.39 776 3880 (1969) 252 (1954) 1180 299 379 459 476 735 1340 1560 3350 3650
2021-02-15 01:30 3.39 776 3880 (1969) 252 (1954) 1180 299 379 459 476 735 1340 1560 3350 3650
2021-02-15 00:30 3.38 771 3880 (1969) 252 (1954) 1180 299 379 459 476 735 1340 1560 3350 3650
2021-02-14 23:30 3.40 781 3920 (1985) 250 (1954) 1170 307 386 446 469 727 1380 1830 3300 3510
2021-02-14 22:30 3.40 781 3920 (1985) 250 (1954) 1170 307 386 446 469 727 1380 1830 3300 3510
2021-02-14 21:30 3.39 776 3920 (1985) 250 (1954) 1170 307 386 446 469 727 1380 1830 3300 3510
2021-02-14 20:30 3.39 776 3920 (1985) 250 (1954) 1170 307 386 446 469 727 1380 1830 3300 3510
2021-02-14 19:30 3.40 781 3920 (1985) 250 (1954) 1170 307 386 446 469 727 1380 1830 3300 3510
2021-02-14 18:30 3.40 781 3920 (1985) 250 (1954) 1170 307 386 446 469 727 1380 1830 3300 3510
2021-02-14 17:30 3.39 776 3920 (1985) 250 (1954) 1170 307 386 446 469 727 1380 1830 3300 3510
2021-02-14 16:30 3.40 781 3920 (1985) 250 (1954) 1170 307 386 446 469 727 1380 1830 3300 3510
2021-02-14 15:30 3.37 766 3920 (1985) 250 (1954) 1170 307 386 446 469 727 1380 1830 3300 3510
2021-02-14 14:30 3.39 776 3920 (1985) 250 (1954) 1170 307 386 446 469 727 1380 1830 3300 3510
2021-02-14 13:30 3.40 781 3920 (1985) 250 (1954) 1170 307 386 446 469 727 1380 1830 3300 3510
2021-02-14 12:30 3.39 776 3920 (1985) 250 (1954) 1170 307 386 446 469 727 1380 1830 3300 3510
2021-02-14 11:30 3.38 771 3920 (1985) 250 (1954) 1170 307 386 446 469 727 1380 1830 3300 3510
2021-02-14 10:30 3.39 776 3920 (1985) 250 (1954) 1170 307 386 446 469 727 1380 1830 3300 3510
2021-02-14 09:30 3.40 781 3920 (1985) 250 (1954) 1170 307 386 446 469 727 1380 1830 3300 3510
2021-02-14 08:30 3.40 781 3920 (1985) 250 (1954) 1170 307 386 446 469 727 1380 1830 3300 3510
2021-02-14 07:30 3.38 771 3920 (1985) 250 (1954) 1170 307 386 446 469 727 1380 1830 3300 3510
2021-02-14 06:30 3.38 771 3920 (1985) 250 (1954) 1170 307 386 446 469 727 1380 1830 3300 3510
2021-02-14 05:30 3.39 776 3920 (1985) 250 (1954) 1170 307 386 446 469 727 1380 1830 3300 3510
2021-02-14 04:30 3.39 776 3920 (1985) 250 (1954) 1170 307 386 446 469 727 1380 1830 3300 3510
2021-02-14 03:30 3.40 781 3920 (1985) 250 (1954) 1170 307 386 446 469 727 1380 1830 3300 3510
2021-02-14 02:30 3.39 776 3920 (1985) 250 (1954) 1170 307 386 446 469 727 1380 1830 3300 3510
2021-02-14 01:30 3.39 776 3920 (1985) 250 (1954) 1170 307 386 446 469 727 1380 1830 3300 3510
2021-02-14 00:30 3.40 781 3920 (1985) 250 (1954) 1170 307 386 446 469 727 1380 1830 3300 3510
2021-02-13 23:30 3.41 786 3920 (1969) 250 (1954) 1290 308 369 413 439 693 1830 2540 3430 3640
2021-02-13 22:30 3.42 791 3920 (1969) 250 (1954) 1290 308 369 413 439 693 1830 2540 3430 3640
2021-02-13 21:30 3.41 786 3920 (1969) 250 (1954) 1290 308 369 413 439 693 1830 2540 3430 3640
2021-02-13 20:30 3.40 781 3920 (1969) 250 (1954) 1290 308 369 413 439 693 1830 2540 3430 3640
2021-02-13 19:30 3.41 786 3920 (1969) 250 (1954) 1290 308 369 413 439 693 1830 2540 3430 3640
2021-02-13 18:30 3.41 786 3920 (1969) 250 (1954) 1290 308 369 413 439 693 1830 2540 3430 3640
2021-02-13 17:30 3.40 781 3920 (1969) 250 (1954) 1290 308 369 413 439 693 1830 2540 3430 3640
2021-02-13 16:30 3.41 786 3920 (1969) 250 (1954) 1290 308 369 413 439 693 1830 2540 3430 3640
2021-02-13 15:30 3.41 786 3920 (1969) 250 (1954) 1290 308 369 413 439 693 1830 2540 3430 3640
2021-02-13 14:30 3.41 786 3920 (1969) 250 (1954) 1290 308 369 413 439 693 1830 2540 3430 3640
2021-02-13 13:30 3.41 786 3920 (1969) 250 (1954) 1290 308 369 413 439 693 1830 2540 3430 3640
2021-02-13 12:30 3.42 791 3920 (1969) 250 (1954) 1290 308 369 413 439 693 1830 2540 3430 3640
2021-02-13 11:30 3.42 791 3920 (1969) 250 (1954) 1290 308 369 413 439 693 1830 2540 3430 3640
2021-02-13 10:30 3.43 797 3920 (1969) 250 (1954) 1290 308 369 413 439 693 1830 2540 3430 3640
2021-02-13 09:30 3.42 791 3920 (1969) 250 (1954) 1290 308 369 413 439 693 1830 2540 3430 3640
2021-02-13 08:30 3.42 791 3920 (1969) 250 (1954) 1290 308 369 413 439 693 1830 2540 3430 3640
2021-02-13 07:30 3.42 791 3920 (1969) 250 (1954) 1290 308 369 413 439 693 1830 2540 3430 3640
2021-02-13 06:30 3.44 802 3920 (1969) 250 (1954) 1290 308 369 413 439 693 1830 2540 3430 3640
2021-02-13 05:30 3.43 797 3920 (1969) 250 (1954) 1290 308 369 413 439 693 1830 2540 3430 3640
2021-02-13 04:30 3.44 802 3920 (1969) 250 (1954) 1290 308 369 413 439 693 1830 2540 3430 3640
2021-02-13 03:30 3.44 802 3920 (1969) 250 (1954) 1290 308 369 413 439 693 1830 2540 3430 3640
2021-02-13 02:30 3.43 797 3920 (1969) 250 (1954) 1290 308 369 413 439 693 1830 2540 3430 3640
2021-02-13 01:30 3.44 802 3920 (1969) 250 (1954) 1290 308 369 413 439 693 1830 2540 3430 3640
2021-02-13 00:30 3.44 802 3920 (1969) 250 (1954) 1290 308 369 413 439 693 1830 2540 3430 3640
2021-02-12 23:30 3.44 802 4040 (1969) 271 (1954) 1250 307 334 419 457 699 1590 1950 3530 3800
2021-02-12 22:30 3.45 807 4040 (1969) 271 (1954) 1250 307 334 419 457 699 1590 1950 3530 3800
2021-02-12 21:30 3.46 812 4040 (1969) 271 (1954) 1250 307 334 419 457 699 1590 1950 3530 3800
2021-02-12 20:30 3.45 807 4040 (1969) 271 (1954) 1250 307 334 419 457 699 1590 1950 3530 3800
2021-02-12 19:30 3.48 822 4040 (1969) 271 (1954) 1250 307 334 419 457 699 1590 1950 3530 3800
2021-02-12 18:30 3.48 822 4040 (1969) 271 (1954) 1250 307 334 419 457 699 1590 1950 3530 3800
2021-02-12 17:30 3.49 828 4040 (1969) 271 (1954) 1250 307 334 419 457 699 1590 1950 3530 3800
2021-02-12 16:30 3.51 838 4040 (1969) 271 (1954) 1250 307 334 419 457 699 1590 1950 3530 3800
2021-02-12 15:30 3.54 854 4040 (1969) 271 (1954) 1250 307 334 419 457 699 1590 1950 3530 3800
2021-02-12 14:30 3.56 865 4040 (1969) 271 (1954) 1250 307 334 419 457 699 1590 1950 3530 3800
2021-02-12 13:30 3.61 892 4040 (1969) 271 (1954) 1250 307 334 419 457 699 1590 1950 3530 3800
2021-02-12 12:30 3.67 924 4040 (1969) 271 (1954) 1250 307 334 419 457 699 1590 1950 3530 3800
2021-02-12 11:30 3.72 952 4040 (1969) 271 (1954) 1250 307 334 419 457 699 1590 1950 3530 3800
2021-02-12 10:30 3.77 980 4040 (1969) 271 (1954) 1250 307 334 419 457 699 1590 1950 3530 3800
2021-02-12 09:30 3.75 968 4040 (1969) 271 (1954) 1250 307 334 419 457 699 1590 1950 3530 3800
2021-02-12 08:30 3.75 968 4040 (1969) 271 (1954) 1250 307 334 419 457 699 1590 1950 3530 3800
2021-02-12 07:30 3.75 968 4040 (1969) 271 (1954) 1250 307 334 419 457 699 1590 1950 3530 3800
2021-02-12 06:30 3.76 974 4040 (1969) 271 (1954) 1250 307 334 419 457 699 1590 1950 3530 3800
2021-02-12 05:30 3.75 968 4040 (1969) 271 (1954) 1250 307 334 419 457 699 1590 1950 3530 3800
2021-02-12 04:30 3.74 963 4040 (1969) 271 (1954) 1250 307 334 419 457 699 1590 1950 3530 3800
2021-02-12 03:30 3.76 974 4040 (1969) 271 (1954) 1250 307 334 419 457 699 1590 1950 3530 3800
2021-02-12 02:30 3.75 968 4040 (1969) 271 (1954) 1250 307 334 419 457 699 1590 1950 3530 3800
2021-02-12 01:30 3.77 980 4040 (1969) 271 (1954) 1250 307 334 419 457 699 1590 1950 3530 3800
2021-02-12 00:30 3.76 974 4040 (1969) 271 (1954) 1250 307 334 419 457 699 1590 1950 3530 3800
2021-02-11 23:30 3.75 968 4500 (1969) 272 (1977) 1280 286 327 423 478 746 1650 2290 3430 3910
2021-02-11 22:30 3.76 974 4500 (1969) 272 (1977) 1280 286 327 423 478 746 1650 2290 3430 3910
2021-02-11 21:30 3.75 968 4500 (1969) 272 (1977) 1280 286 327 423 478 746 1650 2290 3430 3910
2021-02-11 20:30 3.76 974 4500 (1969) 272 (1977) 1280 286 327 423 478 746 1650 2290 3430 3910
2021-02-11 19:30 3.76 974 4500 (1969) 272 (1977) 1280 286 327 423 478 746 1650 2290 3430 3910
2021-02-11 18:30 3.76 974 4500 (1969) 272 (1977) 1280 286 327 423 478 746 1650 2290 3430 3910
2021-02-11 17:30 3.77 980 4500 (1969) 272 (1977) 1280 286 327 423 478 746 1650 2290 3430 3910
2021-02-11 16:30 3.76 974 4500 (1969) 272 (1977) 1280 286 327 423 478 746 1650 2290 3430 3910
2021-02-11 15:30 3.75 968 4500 (1969) 272 (1977) 1280 286 327 423 478 746 1650 2290 3430 3910
2021-02-11 14:30 3.76 974 4500 (1969) 272 (1977) 1280 286 327 423 478 746 1650 2290 3430 3910
2021-02-11 13:30 3.77 980 4500 (1969) 272 (1977) 1280 286 327 423 478 746 1650 2290 3430 3910
2021-02-11 12:30 3.75 968 4500 (1969) 272 (1977) 1280 286 327 423 478 746 1650 2290 3430 3910
2021-02-11 11:30 3.76 974 4500 (1969) 272 (1977) 1280 286 327 423 478 746 1650 2290 3430 3910
2021-02-11 10:30 3.75 968 4500 (1969) 272 (1977) 1280 286 327 423 478 746 1650 2290 3430 3910
2021-02-11 09:30 3.77 980 4500 (1969) 272 (1977) 1280 286 327 423 478 746 1650 2290 3430 3910
2021-02-11 08:30 3.77 980 4500 (1969) 272 (1977) 1280 286 327 423 478 746 1650 2290 3430 3910
2021-02-11 07:30 3.76 974 4500 (1969) 272 (1977) 1280 286 327 423 478 746 1650 2290 3430 3910
2021-02-11 06:30 3.78 985 4500 (1969) 272 (1977) 1280 286 327 423 478 746 1650 2290 3430 3910
2021-02-11 05:30 3.77 980 4500 (1969) 272 (1977) 1280 286 327 423 478 746 1650 2290 3430 3910
2021-02-11 04:30 3.78 985 4500 (1969) 272 (1977) 1280 286 327 423 478 746 1650 2290 3430 3910
2021-02-11 03:30 3.79 991 4500 (1969) 272 (1977) 1280 286 327 423 478 746 1650 2290 3430 3910
2021-02-11 02:30 3.78 985 4500 (1969) 272 (1977) 1280 286 327 423 478 746 1650 2290 3430 3910
2021-02-11 01:30 3.79 991 4500 (1969) 272 (1977) 1280 286 327 423 478 746 1650 2290 3430 3910
2021-02-11 00:30 3.77 980 4500 (1969) 272 (1977) 1280 286 327 423 478 746 1650 2290 3430 3910
2021-02-10 23:30 3.79 991 4630 (1949) 257 (1981) 1330 287 331 411 440 750 1930 2390 3550 4080
2021-02-10 22:30 3.79 991 4630 (1949) 257 (1981) 1330 287 331 411 440 750 1930 2390 3550 4080
2021-02-10 21:30 3.78 985 4630 (1949) 257 (1981) 1330 287 331 411 440 750 1930 2390 3550 4080
2021-02-10 20:30 3.80 996 4630 (1949) 257 (1981) 1330 287 331 411 440 750 1930 2390 3550 4080
2021-02-10 19:30 3.80 996 4630 (1949) 257 (1981) 1330 287 331 411 440 750 1930 2390 3550 4080
2021-02-10 18:30 3.79 991 4630 (1949) 257 (1981) 1330 287 331 411 440 750 1930 2390 3550 4080
2021-02-10 17:30 3.79 991 4630 (1949) 257 (1981) 1330 287 331 411 440 750 1930 2390 3550 4080
2021-02-10 16:30 3.80 996 4630 (1949) 257 (1981) 1330 287 331 411 440 750 1930 2390 3550 4080
2021-02-10 15:30 3.78 985 4630 (1949) 257 (1981) 1330 287 331 411 440 750 1930 2390 3550 4080
2021-02-10 14:30 3.80 996 4630 (1949) 257 (1981) 1330 287 331 411 440 750 1930 2390 3550 4080
2021-02-10 13:30 3.79 991 4630 (1949) 257 (1981) 1330 287 331 411 440 750 1930 2390 3550 4080
2021-02-10 12:30 3.78 985 4630 (1949) 257 (1981) 1330 287 331 411 440 750 1930 2390 3550 4080
2021-02-10 11:30 3.80 996 4630 (1949) 257 (1981) 1330 287 331 411 440 750 1930 2390 3550 4080
2021-02-10 10:30 3.79 991 4630 (1949) 257 (1981) 1330 287 331 411 440 750 1930 2390 3550 4080
2021-02-10 09:30 3.78 985 4630 (1949) 257 (1981) 1330 287 331 411 440 750 1930 2390 3550 4080
2021-02-10 08:30 3.79 991 4630 (1949) 257 (1981) 1330 287 331 411 440 750 1930 2390 3550 4080
2021-02-10 07:30 3.77 980 4630 (1949) 257 (1981) 1330 287 331 411 440 750 1930 2390 3550 4080
2021-02-10 06:30 3.78 985 4630 (1949) 257 (1981) 1330 287 331 411 440 750 1930 2390 3550 4080
2021-02-10 05:30 3.80 996 4630 (1949) 257 (1981) 1330 287 331 411 440 750 1930 2390 3550 4080
2021-02-10 04:30 3.80 996 4630 (1949) 257 (1981) 1330 287 331 411 440 750 1930 2390 3550 4080
2021-02-10 03:30 3.80 996 4630 (1949) 257 (1981) 1330 287 331 411 440 750 1930 2390 3550 4080
2021-02-10 02:30 3.79 991 4630 (1949) 257 (1981) 1330 287 331 411 440 750 1930 2390 3550 4080
2021-02-10 01:30 3.78 985 4630 (1949) 257 (1981) 1330 287 331 411 440 750 1930 2390 3550 4080
2021-02-10 00:30 3.80 996 4630 (1949) 257 (1981) 1330 287 331 411 440 750 1930 2390 3550 4080
2021-02-09 23:30 3.80 996 5010 (1950) 283 (1977) 1360 313 333 411 469 776 1890 2380 3600 3990
2021-02-09 22:30 3.81 1000 5010 (1950) 283 (1977) 1360 313 333 411 469 776 1890 2380 3600 3990
2021-02-09 21:30 3.79 991 5010 (1950) 283 (1977) 1360 313 333 411 469 776 1890 2380 3600 3990
2021-02-09 20:30 3.80 996 5010 (1950) 283 (1977) 1360 313 333 411 469 776 1890 2380 3600 3990
2021-02-09 19:30 3.79 991 5010 (1950) 283 (1977) 1360 313 333 411 469 776 1890 2380 3600 3990
2021-02-09 18:30 3.78 985 5010 (1950) 283 (1977) 1360 313 333 411 469 776 1890 2380 3600 3990
2021-02-09 17:30 3.80 996 5010 (1950) 283 (1977) 1360 313 333 411 469 776 1890 2380 3600 3990
2021-02-09 16:30 3.80 996 5010 (1950) 283 (1977) 1360 313 333 411 469 776 1890 2380 3600 3990
2021-02-09 15:30 3.81 1000 5010 (1950) 283 (1977) 1360 313 333 411 469 776 1890 2380 3600 3990
2021-02-09 14:30 3.81 1000 5010 (1950) 283 (1977) 1360 313 333 411 469 776 1890 2380 3600 3990
2021-02-09 13:30 3.81 1000 5010 (1950) 283 (1977) 1360 313 333 411 469 776 1890 2380 3600 3990
2021-02-09 12:30 3.81 1000 5010 (1950) 283 (1977) 1360 313 333 411 469 776 1890 2380 3600 3990
2021-02-09 11:30 3.82 1010 5010 (1950) 283 (1977) 1360 313 333 411 469 776 1890 2380 3600 3990
2021-02-09 10:30 3.82 1010 5010 (1950) 283 (1977) 1360 313 333 411 469 776 1890 2380 3600 3990
2021-02-09 09:30 3.83 1010 5010 (1950) 283 (1977) 1360 313 333 411 469 776 1890 2380 3600 3990
2021-02-09 08:30 3.81 1000 5010 (1950) 283 (1977) 1360 313 333 411 469 776 1890 2380 3600 3990
2021-02-09 07:30 3.83 1010 5010 (1950) 283 (1977) 1360 313 333 411 469 776 1890 2380 3600 3990
2021-02-09 06:30 3.84 1020 5010 (1950) 283 (1977) 1360 313 333 411 469 776 1890 2380 3600 3990
2021-02-09 05:30 3.85 1020 5010 (1950) 283 (1977) 1360 313 333 411 469 776 1890 2380 3600 3990
2021-02-09 04:30 3.84 1020 5010 (1950) 283 (1977) 1360 313 333 411 469 776 1890 2380 3600 3990
2021-02-09 03:30 3.84 1020 5010 (1950) 283 (1977) 1360 313 333 411 469 776 1890 2380 3600 3990
2021-02-09 02:30 3.86 1030 5010 (1950) 283 (1977) 1360 313 333 411 469 776 1890 2380 3600 3990
2021-02-09 01:30 3.85 1020 5010 (1950) 283 (1977) 1360 313 333 411 469 776 1890 2380 3600 3990
2021-02-09 00:30 3.85 1020 5010 (1950) 283 (1977) 1360 313 333 411 469 776 1890 2380 3600 3990
2021-02-08 23:30 3.85 1020 4720 (1949) 230 (1965) 1410 288 336 406 489 907 2360 2620 3590 4080
2021-02-08 22:30 3.86 1030 4720 (1949) 230 (1965) 1410 288 336 406 489 907 2360 2620 3590 4080
2021-02-08 21:30 3.85 1020 4720 (1949) 230 (1965) 1410 288 336 406 489 907 2360 2620 3590 4080
2021-02-08 20:30 3.86 1030 4720 (1949) 230 (1965) 1410 288 336 406 489 907 2360 2620 3590 4080
2021-02-08 19:30 3.90 1050 4720 (1949) 230 (1965) 1410 288 336 406 489 907 2360 2620 3590 4080
2021-02-08 18:30 3.88 1040 4720 (1949) 230 (1965) 1410 288 336 406 489 907 2360 2620 3590 4080
2021-02-08 17:30 3.90 1050 4720 (1949) 230 (1965) 1410 288 336 406 489 907 2360 2620 3590 4080
2021-02-08 16:30 3.92 1070 4720 (1949) 230 (1965) 1410 288 336 406 489 907 2360 2620 3590 4080
2021-02-08 15:30 3.94 1080 4720 (1949) 230 (1965) 1410 288 336 406 489 907 2360 2620 3590 4080
2021-02-08 14:30 3.98 1100 4720 (1949) 230 (1965) 1410 288 336 406 489 907 2360 2620 3590 4080
2021-02-08 13:30 4.04 1140 4720 (1949) 230 (1965) 1410 288 336 406 489 907 2360 2620 3590 4080
2021-02-08 12:30 4.11 1180 4720 (1949) 230 (1965) 1410 288 336 406 489 907 2360 2620 3590 4080
2021-02-08 11:30 4.18 1220 4720 (1949) 230 (1965) 1410 288 336 406 489 907 2360 2620 3590 4080
2021-02-08 10:30 4.29 1290 4720 (1949) 230 (1965) 1410 288 336 406 489 907 2360 2620 3590 4080
2021-02-08 09:30 4.34 1320 4720 (1949) 230 (1965) 1410 288 336 406 489 907 2360 2620 3590 4080
2021-02-08 08:30 4.34 1320 4720 (1949) 230 (1965) 1410 288 336 406 489 907 2360 2620 3590 4080
2021-02-08 07:30 4.33 1310 4720 (1949) 230 (1965) 1410 288 336 406 489 907 2360 2620 3590 4080
2021-02-08 06:30 4.33 1310 4720 (1949) 230 (1965) 1410 288 336 406 489 907 2360 2620 3590 4080
2021-02-08 05:30 4.35 1330 4720 (1949) 230 (1965) 1410 288 336 406 489 907 2360 2620 3590 4080
2021-02-08 04:30 4.35 1330 4720 (1949) 230 (1965) 1410 288 336 406 489 907 2360 2620 3590 4080
2021-02-08 03:30 4.33 1310 4720 (1949) 230 (1965) 1410 288 336 406 489 907 2360 2620 3590 4080
2021-02-08 02:30 4.34 1320 4720 (1949) 230 (1965) 1410 288 336 406 489 907 2360 2620 3590 4080
2021-02-08 01:30 4.36 1330 4720 (1949) 230 (1965) 1410 288 336 406 489 907 2360 2620 3590 4080
2021-02-08 00:30 4.36 1330 4720 (1949) 230 (1965) 1410 288 336 406 489 907 2360 2620 3590 4080
2021-02-07 23:30 4.34 1320 4540 (1949) 231 (1965) 1400 276 307 413 463 726 2390 2860 3520 3970
2021-02-07 22:30 4.35 1330 4540 (1949) 231 (1965) 1400 276 307 413 463 726 2390 2860 3520 3970
2021-02-07 21:30 4.35 1330 4540 (1949) 231 (1965) 1400 276 307 413 463 726 2390 2860 3520 3970
2021-02-07 20:30 4.34 1320 4540 (1949) 231 (1965) 1400 276 307 413 463 726 2390 2860 3520 3970
2021-02-07 19:30 4.34 1320 4540 (1949) 231 (1965) 1400 276 307 413 463 726 2390 2860 3520 3970
2021-02-07 18:30 4.35 1330 4540 (1949) 231 (1965) 1400 276 307 413 463 726 2390 2860 3520 3970
2021-02-07 17:30 4.35 1330 4540 (1949) 231 (1965) 1400 276 307 413 463 726 2390 2860 3520 3970
2021-02-07 16:30 4.35 1330 4540 (1949) 231 (1965) 1400 276 307 413 463 726 2390 2860 3520 3970
2021-02-07 15:30 4.34 1320 4540 (1949) 231 (1965) 1400 276 307 413 463 726 2390 2860 3520 3970
2021-02-07 14:30 4.36 1330 4540 (1949) 231 (1965) 1400 276 307 413 463 726 2390 2860 3520 3970
2021-02-07 13:30 4.35 1330 4540 (1949) 231 (1965) 1400 276 307 413 463 726 2390 2860 3520 3970
2021-02-07 12:30 4.35 1330 4540 (1949) 231 (1965) 1400 276 307 413 463 726 2390 2860 3520 3970
2021-02-07 10:30 4.36 1330 4540 (1949) 231 (1965) 1400 276 307 413 463 726 2390 2860 3520 3970
2021-02-07 09:30 4.37 1340 4540 (1949) 231 (1965) 1400 276 307 413 463 726 2390 2860 3520 3970
2021-02-07 08:30 4.37 1340 4540 (1949) 231 (1965) 1400 276 307 413 463 726 2390 2860 3520 3970
2021-02-07 07:30 4.37 1340 4540 (1949) 231 (1965) 1400 276 307 413 463 726 2390 2860 3520 3970
2021-02-07 06:30 4.38 1340 4540 (1949) 231 (1965) 1400 276 307 413 463 726 2390 2860 3520 3970
2021-02-07 05:30 4.37 1340 4540 (1949) 231 (1965) 1400 276 307 413 463 726 2390 2860 3520 3970
2021-02-07 04:30 4.38 1340 4540 (1949) 231 (1965) 1400 276 307 413 463 726 2390 2860 3520 3970
2021-02-07 03:30 4.36 1330 4540 (1949) 231 (1965) 1400 276 307 413 463 726 2390 2860 3520 3970
2021-02-07 02:30 4.38 1340 4540 (1949) 231 (1965) 1400 276 307 413 463 726 2390 2860 3520 3970
2021-02-07 01:30 4.38 1340 4540 (1949) 231 (1965) 1400 276 307 413 463 726 2390 2860 3520 3970
2021-02-07 00:30 4.39 1350 4540 (1949) 231 (1965) 1400 276 307 413 463 726 2390 2860 3520 3970
2021-02-06 23:30 4.40 1360 4440 (1949) 233 (1965) 1320 269 285 355 435 678 2250 2840 3500 3870
2021-02-06 22:30 4.38 1340 4440 (1949) 233 (1965) 1320 269 285 355 435 678 2250 2840 3500 3870
2021-02-06 21:30 4.39 1350 4440 (1949) 233 (1965) 1320 269 285 355 435 678 2250 2840 3500 3870
2021-02-06 20:30 4.39 1350 4440 (1949) 233 (1965) 1320 269 285 355 435 678 2250 2840 3500 3870
2021-02-06 19:30 4.39 1350 4440 (1949) 233 (1965) 1320 269 285 355 435 678 2250 2840 3500 3870
2021-02-06 18:30 4.40 1360 4440 (1949) 233 (1965) 1320 269 285 355 435 678 2250 2840 3500 3870
2021-02-06 17:30 4.37 1340 4440 (1949) 233 (1965) 1320 269 285 355 435 678 2250 2840 3500 3870
2021-02-06 16:30 4.38 1340 4440 (1949) 233 (1965) 1320 269 285 355 435 678 2250 2840 3500 3870
2021-02-06 15:30 4.39 1350 4440 (1949) 233 (1965) 1320 269 285 355 435 678 2250 2840 3500 3870
2021-02-06 14:30 4.41 1360 4440 (1949) 233 (1965) 1320 269 285 355 435 678 2250 2840 3500 3870
2021-02-06 13:30 4.40 1360 4440 (1949) 233 (1965) 1320 269 285 355 435 678 2250 2840 3500 3870
2021-02-06 12:30 4.40 1360 4440 (1949) 233 (1965) 1320 269 285 355 435 678 2250 2840 3500 3870
2021-02-06 11:30 4.40 1360 4440 (1949) 233 (1965) 1320 269 285 355 435 678 2250 2840 3500 3870
2021-02-06 10:30 4.40 1360 4440 (1949) 233 (1965) 1320 269 285 355 435 678 2250 2840 3500 3870
2021-02-06 09:30 4.42 1370 4440 (1949) 233 (1965) 1320 269 285 355 435 678 2250 2840 3500 3870
2021-02-06 08:30 4.42 1370 4440 (1949) 233 (1965) 1320 269 285 355 435 678 2250 2840 3500 3870
2021-02-06 07:30 4.44 1380 4440 (1949) 233 (1965) 1320 269 285 355 435 678 2250 2840 3500 3870
2021-02-06 06:30 4.43 1380 4440 (1949) 233 (1965) 1320 269 285 355 435 678 2250 2840 3500 3870
2021-02-06 05:30 4.44 1380 4440 (1949) 233 (1965) 1320 269 285 355 435 678 2250 2840 3500 3870
2021-02-06 04:30 4.45 1390 4440 (1949) 233 (1965) 1320 269 285 355 435 678 2250 2840 3500 3870
2021-02-06 03:30 4.46 1400 4440 (1949) 233 (1965) 1320 269 285 355 435 678 2250 2840 3500 3870
2021-02-06 02:30 4.48 1410 4440 (1949) 233 (1965) 1320 269 285 355 435 678 2250 2840 3500 3870
2021-02-06 01:30 4.47 1400 4440 (1949) 233 (1965) 1320 269 285 355 435 678 2250 2840 3500 3870
2021-02-06 00:30 4.50 1420 4440 (1949) 233 (1965) 1320 269 285 355 435 678 2250 2840 3500 3870
2021-02-05 23:30 4.53 1440 4440 (1949) 234 (1965) 1240 276 284 357 398 589 1970 2280 3380 3760
2021-02-05 22:30 4.56 1460 4440 (1949) 234 (1965) 1240 276 284 357 398 589 1970 2280 3380 3760
2021-02-05 21:30 4.61 1490 4440 (1949) 234 (1965) 1240 276 284 357 398 589 1970 2280 3380 3760
2021-02-05 20:30 4.69 1550 4440 (1949) 234 (1965) 1240 276 284 357 398 589 1970 2280 3380 3760
2021-02-05 19:30 4.77 1600 4440 (1949) 234 (1965) 1240 276 284 357 398 589 1970 2280 3380 3760
2021-02-05 18:30 4.90 1690 4440 (1949) 234 (1965) 1240 276 284 357 398 589 1970 2280 3380 3760
2021-02-05 17:30 5.07 1810 4440 (1949) 234 (1965) 1240 276 284 357 398 589 1970 2280 3380 3760
2021-02-05 16:30 5.22 1920 4440 (1949) 234 (1965) 1240 276 284 357 398 589 1970 2280 3380 3760
2021-02-05 15:30 5.29 1970 4440 (1949) 234 (1965) 1240 276 284 357 398 589 1970 2280 3380 3760
2021-02-05 14:30 5.30 1980 4440 (1949) 234 (1965) 1240 276 284 357 398 589 1970 2280 3380 3760
2021-02-05 13:30 5.31 1980 4440 (1949) 234 (1965) 1240 276 284 357 398 589 1970 2280 3380 3760
2021-02-05 12:30 5.31 1980 4440 (1949) 234 (1965) 1240 276 284 357 398 589 1970 2280 3380 3760
2021-02-05 11:30 5.31 1980 4440 (1949) 234 (1965) 1240 276 284 357 398 589 1970 2280 3380 3760
2021-02-05 10:30 5.32 1990 4440 (1949) 234 (1965) 1240 276 284 357 398 589 1970 2280 3380 3760
2021-02-05 09:30 5.34 2010 4440 (1949) 234 (1965) 1240 276 284 357 398 589 1970 2280 3380 3760
2021-02-05 08:30 5.35 2010 4440 (1949) 234 (1965) 1240 276 284 357 398 589 1970 2280 3380 3760
2021-02-05 07:30 5.36 2020 4440 (1949) 234 (1965) 1240 276 284 357 398 589 1970 2280 3380 3760
2021-02-05 06:30 5.36 2020 4440 (1949) 234 (1965) 1240 276 284 357 398 589 1970 2280 3380 3760
2021-02-05 05:30 5.36 2020 4440 (1949) 234 (1965) 1240 276 284 357 398 589 1970 2280 3380 3760
2021-02-05 04:30 5.36 2020 4440 (1949) 234 (1965) 1240 276 284 357 398 589 1970 2280 3380 3760
2021-02-05 03:30 5.36 2020 4440 (1949) 234 (1965) 1240 276 284 357 398 589 1970 2280 3380 3760
2021-02-05 02:30 5.38 2030 4440 (1949) 234 (1965) 1240 276 284 357 398 589 1970 2280 3380 3760
2021-02-05 01:30 5.36 2020 4440 (1949) 234 (1965) 1240 276 284 357 398 589 1970 2280 3380 3760
2021-02-05 00:30 5.38 2030 4440 (1949) 234 (1965) 1240 276 284 357 398 589 1970 2280 3380 3760
2021-02-04 23:30 5.39 2040 3860 (1985) 237 (1965) 1120 273 308 382 403 571 1410 2060 3070 3320
2021-02-04 22:30 5.41 2060 3860 (1985) 237 (1965) 1120 273 308 382 403 571 1410 2060 3070 3320
2021-02-04 21:30 5.43 2070 3860 (1985) 237 (1965) 1120 273 308 382 403 571 1410 2060 3070 3320
2021-02-04 20:30 5.43 2070 3860 (1985) 237 (1965) 1120 273 308 382 403 571 1410 2060 3070 3320
2021-02-04 19:30 5.45 2090 3860 (1985) 237 (1965) 1120 273 308 382 403 571 1410 2060 3070 3320
2021-02-04 18:30 5.48 2110 3860 (1985) 237 (1965) 1120 273 308 382 403 571 1410 2060 3070 3320
2021-02-04 17:30 5.51 2130 3860 (1985) 237 (1965) 1120 273 308 382 403 571 1410 2060 3070 3320
2021-02-04 16:30 5.57 2180 3860 (1985) 237 (1965) 1120 273 308 382 403 571 1410 2060 3070 3320
2021-02-04 15:30 5.61 2210 3860 (1985) 237 (1965) 1120 273 308 382 403 571 1410 2060 3070 3320
2021-02-04 14:30 5.71 2290 3860 (1985) 237 (1965) 1120 273 308 382 403 571 1410 2060 3070 3320
2021-02-04 13:30 5.86 2400 3860 (1985) 237 (1965) 1120 273 308 382 403 571 1410 2060 3070 3320
2021-02-04 12:30 6.04 2550 3860 (1985) 237 (1965) 1120 273 308 382 403 571 1410 2060 3070 3320
2021-02-04 11:30 6.28 2750 3860 (1985) 237 (1965) 1120 273 308 382 403 571 1410 2060 3070 3320
2021-02-04 10:30 6.46 2900 3860 (1985) 237 (1965) 1120 273 308 382 403 571 1410 2060 3070 3320
2021-02-04 09:30 6.55 2980 3860 (1985) 237 (1965) 1120 273 308 382 403 571 1410 2060 3070 3320
2021-02-04 08:30 6.55 2980 3860 (1985) 237 (1965) 1120 273 308 382 403 571 1410 2060 3070 3320
2021-02-04 07:30 6.56 2990 3860 (1985) 237 (1965) 1120 273 308 382 403 571 1410 2060 3070 3320
2021-02-04 06:30 6.54 2970 3860 (1985) 237 (1965) 1120 273 308 382 403 571 1410 2060 3070 3320
2021-02-04 05:30 6.57 3000 3860 (1985) 237 (1965) 1120 273 308 382 403 571 1410 2060 3070 3320
2021-02-04 04:30 6.55 2980 3860 (1985) 237 (1965) 1120 273 308 382 403 571 1410 2060 3070 3320
2021-02-04 03:30 6.56 2990 3860 (1985) 237 (1965) 1120 273 308 382 403 571 1410 2060 3070 3320
2021-02-04 02:30 6.59 3010 3860 (1985) 237 (1965) 1120 273 308 382 403 571 1410 2060 3070 3320
2021-02-04 01:30 6.58 3000 3860 (1985) 237 (1965) 1120 273 308 382 403 571 1410 2060 3070 3320
2021-02-04 00:30 6.58 3000 3860 (1985) 237 (1965) 1120 273 308 382 403 571 1410 2060 3070 3320
2021-02-03 23:30 6.58 3000 4440 (1949) 259 (1981) 1090 272 312 392 425 641 1120 1840 3050 3690
2021-02-03 22:30 6.59 3010 4440 (1949) 259 (1981) 1090 272 312 392 425 641 1120 1840 3050 3690
2021-02-03 21:30 6.57 3000 4440 (1949) 259 (1981) 1090 272 312 392 425 641 1120 1840 3050 3690
2021-02-03 20:30 6.59 3010 4440 (1949) 259 (1981) 1090 272 312 392 425 641 1120 1840 3050 3690
2021-02-03 19:30 6.61 3030 4440 (1949) 259 (1981) 1090 272 312 392 425 641 1120 1840 3050 3690
2021-02-03 18:30 6.60 3020 4440 (1949) 259 (1981) 1090 272 312 392 425 641 1120 1840 3050 3690
2021-02-03 17:30 6.61 3030 4440 (1949) 259 (1981) 1090 272 312 392 425 641 1120 1840 3050 3690
2021-02-03 16:30 6.62 3040 4440 (1949) 259 (1981) 1090 272 312 392 425 641 1120 1840 3050 3690
2021-02-03 15:30 6.65 3070 4440 (1949) 259 (1981) 1090 272 312 392 425 641 1120 1840 3050 3690
2021-02-03 14:30 6.69 3100 4440 (1949) 259 (1981) 1090 272 312 392 425 641 1120 1840 3050 3690
2021-02-03 13:30 6.72 3130 4440 (1949) 259 (1981) 1090 272 312 392 425 641 1120 1840 3050 3690
2021-02-03 12:30 6.78 3180 4440 (1949) 259 (1981) 1090 272 312 392 425 641 1120 1840 3050 3690
2021-02-03 11:30 6.84 3230 4440 (1949) 259 (1981) 1090 272 312 392 425 641 1120 1840 3050 3690
2021-02-03 10:30 6.89 3280 4440 (1949) 259 (1981) 1090 272 312 392 425 641 1120 1840 3050 3690
2021-02-03 09:30 6.92 3310 4440 (1949) 259 (1981) 1090 272 312 392 425 641 1120 1840 3050 3690
2021-02-03 08:30 6.92 3310 4440 (1949) 259 (1981) 1090 272 312 392 425 641 1120 1840 3050 3690
2021-02-03 07:30 6.93 3310 4440 (1949) 259 (1981) 1090 272 312 392 425 641 1120 1840 3050 3690
2021-02-03 06:30 6.94 3320 4440 (1949) 259 (1981) 1090 272 312 392 425 641 1120 1840 3050 3690
2021-02-03 05:30 6.94 3320 4440 (1949) 259 (1981) 1090 272 312 392 425 641 1120 1840 3050 3690
2021-02-03 04:30 6.94 3320 4440 (1949) 259 (1981) 1090 272 312 392 425 641 1120 1840 3050 3690
2021-02-03 03:30 6.96 3340 4440 (1949) 259 (1981) 1090 272 312 392 425 641 1120 1840 3050 3690
2021-02-03 02:30 6.95 3330 4440 (1949) 259 (1981) 1090 272 312 392 425 641 1120 1840 3050 3690
2021-02-03 01:30 6.96 3340 4440 (1949) 259 (1981) 1090 272 312 392 425 641 1120 1840 3050 3690
2021-02-03 00:30 6.96 3340 4440 (1949) 259 (1981) 1090 272 312 392 425 641 1120 1840 3050 3690
2021-02-02 23:30 6.97 3350 4820 (1949) 257 (1981) 1010 273 310 382 435 606 1210 1330 2910 3540
2021-02-02 22:30 6.97 3350 4820 (1949) 257 (1981) 1010 273 310 382 435 606 1210 1330 2910 3540
2021-02-02 21:30 6.97 3350 4820 (1949) 257 (1981) 1010 273 310 382 435 606 1210 1330 2910 3540
2021-02-02 20:30 6.95 3330 4820 (1949) 257 (1981) 1010 273 310 382 435 606 1210 1330 2910 3540
2021-02-02 19:30 6.94 3320 4820 (1949) 257 (1981) 1010 273 310 382 435 606 1210 1330 2910 3540
2021-02-02 18:30 6.93 3310 4820 (1949) 257 (1981) 1010 273 310 382 435 606 1210 1330 2910 3540
2021-02-02 17:30 6.92 3310 4820 (1949) 257 (1981) 1010 273 310 382 435 606 1210 1330 2910 3540
2021-02-02 16:30 6.89 3280 4820 (1949) 257 (1981) 1010 273 310 382 435 606 1210 1330 2910 3540
2021-02-02 15:30 6.85 3240 4820 (1949) 257 (1981) 1010 273 310 382 435 606 1210 1330 2910 3540
2021-02-02 14:30 6.80 3200 4820 (1949) 257 (1981) 1010 273 310 382 435 606 1210 1330 2910 3540
2021-02-02 13:30 6.73 3140 4820 (1949) 257 (1981) 1010 273 310 382 435 606 1210 1330 2910 3540
2021-02-02 12:30 6.63 3050 4820 (1949) 257 (1981) 1010 273 310 382 435 606 1210 1330 2910 3540
2021-02-02 11:30 6.54 2970 4820 (1949) 257 (1981) 1010 273 310 382 435 606 1210 1330 2910 3540
2021-02-02 10:30 6.46 2900 4820 (1949) 257 (1981) 1010 273 310 382 435 606 1210 1330 2910 3540
2021-02-02 09:30 6.40 2850 4820 (1949) 257 (1981) 1010 273 310 382 435 606 1210 1330 2910 3540
2021-02-02 08:30 6.40 2850 4820 (1949) 257 (1981) 1010 273 310 382 435 606 1210 1330 2910 3540
2021-02-02 07:30 6.37 2820 4820 (1949) 257 (1981) 1010 273 310 382 435 606 1210 1330 2910 3540
2021-02-02 06:30 6.38 2830 4820 (1949) 257 (1981) 1010 273 310 382 435 606 1210 1330 2910 3540
2021-02-02 05:30 6.38 2830 4820 (1949) 257 (1981) 1010 273 310 382 435 606 1210 1330 2910 3540
2021-02-02 04:30 6.38 2830 4820 (1949) 257 (1981) 1010 273 310 382 435 606 1210 1330 2910 3540
2021-02-02 03:30 6.38 2830 4820 (1949) 257 (1981) 1010 273 310 382 435 606 1210 1330 2910 3540
2021-02-02 02:30 6.39 2840 4820 (1949) 257 (1981) 1010 273 310 382 435 606 1210 1330 2910 3540
2021-02-02 01:30 6.39 2840 4820 (1949) 257 (1981) 1010 273 310 382 435 606 1210 1330 2910 3540
2021-02-02 00:30 6.39 2840 4820 (1949) 257 (1981) 1010 273 310 382 435 606 1210 1330 2910 3540
2021-02-01 23:30 6.39 2840 4820 (1949) 258 (1977) 1030 273 307 361 417 663 1190 1330 2830 3460
2021-02-01 22:30 6.38 2830 4820 (1949) 258 (1977) 1030 273 307 361 417 663 1190 1330 2830 3460
2021-02-01 21:30 6.39 2840 4820 (1949) 258 (1977) 1030 273 307 361 417 663 1190 1330 2830 3460
2021-02-01 20:30 6.39 2840 4820 (1949) 258 (1977) 1030 273 307 361 417 663 1190 1330 2830 3460
2021-02-01 19:30 6.39 2840 4820 (1949) 258 (1977) 1030 273 307 361 417 663 1190 1330 2830 3460
2021-02-01 18:30 6.40 2850 4820 (1949) 258 (1977) 1030 273 307 361 417 663 1190 1330 2830 3460
2021-02-01 17:30 6.39 2840 4820 (1949) 258 (1977) 1030 273 307 361 417 663 1190 1330 2830 3460
2021-02-01 16:30 6.38 2830 4820 (1949) 258 (1977) 1030 273 307 361 417 663 1190 1330 2830 3460
2021-02-01 15:30 6.39 2840 4820 (1949) 258 (1977) 1030 273 307 361 417 663 1190 1330 2830 3460
2021-02-01 14:30 6.39 2840 4820 (1949) 258 (1977) 1030 273 307 361 417 663 1190 1330 2830 3460
2021-02-01 13:30 6.38 2830 4820 (1949) 258 (1977) 1030 273 307 361 417 663 1190 1330 2830 3460
2021-02-01 12:30 6.39 2840 4820 (1949) 258 (1977) 1030 273 307 361 417 663 1190 1330 2830 3460
2021-02-01 11:30 6.38 2830 4820 (1949) 258 (1977) 1030 273 307 361 417 663 1190 1330 2830 3460
2021-02-01 10:30 6.39 2840 4820 (1949) 258 (1977) 1030 273 307 361 417 663 1190 1330 2830 3460
2021-02-01 09:30 6.37 2820 4820 (1949) 258 (1977) 1030 273 307 361 417 663 1190 1330 2830 3460
2021-02-01 08:30 6.37 2820 4820 (1949) 258 (1977) 1030 273 307 361 417 663 1190 1330 2830 3460
2021-02-01 07:30 6.36 2820 4820 (1949) 258 (1977) 1030 273 307 361 417 663 1190 1330 2830 3460
2021-02-01 06:30 6.36 2820 4820 (1949) 258 (1977) 1030 273 307 361 417 663 1190 1330 2830 3460
2021-02-01 05:30 6.34 2800 4820 (1949) 258 (1977) 1030 273 307 361 417 663 1190 1330 2830 3460
2021-02-01 04:30 6.35 2810 4820 (1949) 258 (1977) 1030 273 307 361 417 663 1190 1330 2830 3460
2021-02-01 03:30 6.33 2790 4820 (1949) 258 (1977) 1030 273 307 361 417 663 1190 1330 2830 3460
2021-02-01 02:30 6.31 2770 4820 (1949) 258 (1977) 1030 273 307 361 417 663 1190 1330 2830 3460
2021-02-01 01:30 6.27 2740 4820 (1949) 258 (1977) 1030 273 307 361 417 663 1190 1330 2830 3460
2021-02-01 00:30 6.24 2710 4820 (1949) 258 (1977) 1030 273 307 361 417 663 1190 1330 2830 3460
2021-01-31 23:30 6.18 2670 4350 (1949) 250 (1981) 1070 271 316 359 419 662 1190 1320 3270 3880
2021-01-31 22:30 6.10 2600 4350 (1949) 250 (1981) 1070 271 316 359 419 662 1190 1320 3270 3880
2021-01-31 21:30 5.98 2500 4350 (1949) 250 (1981) 1070 271 316 359 419 662 1190 1320 3270 3880
2021-01-31 20:30 5.82 2370 4350 (1949) 250 (1981) 1070 271 316 359 419 662 1190 1320 3270 3880
2021-01-31 19:30 5.61 2210 4350 (1949) 250 (1981) 1070 271 316 359 419 662 1190 1320 3270 3880
2021-01-31 18:30 5.36 2020 4350 (1949) 250 (1981) 1070 271 316 359 419 662 1190 1320 3270 3880
2021-01-31 17:30 5.10 1830 4350 (1949) 250 (1981) 1070 271 316 359 419 662 1190 1320 3270 3880
2021-01-31 16:30 5.04 1790 4350 (1949) 250 (1981) 1070 271 316 359 419 662 1190 1320 3270 3880
2021-01-31 15:30 5.04 1790 4350 (1949) 250 (1981) 1070 271 316 359 419 662 1190 1320 3270 3880
2021-01-31 14:30 5.05 1790 4350 (1949) 250 (1981) 1070 271 316 359 419 662 1190 1320 3270 3880
2021-01-31 13:30 5.07 1810 4350 (1949) 250 (1981) 1070 271 316 359 419 662 1190 1320 3270 3880
2021-01-31 12:30 5.09 1820 4350 (1949) 250 (1981) 1070 271 316 359 419 662 1190 1320 3270 3880
2021-01-31 11:30 5.10 1830 4350 (1949) 250 (1981) 1070 271 316 359 419 662 1190 1320 3270 3880
2021-01-31 10:30 5.13 1850 4350 (1949) 250 (1981) 1070 271 316 359 419 662 1190 1320 3270 3880
2021-01-31 09:30 5.13 1850 4350 (1949) 250 (1981) 1070 271 316 359 419 662 1190 1320 3270 3880
2021-01-31 08:30 5.15 1870 4350 (1949) 250 (1981) 1070 271 316 359 419 662 1190 1320 3270 3880
2021-01-31 07:30 5.17 1880 4350 (1949) 250 (1981) 1070 271 316 359 419 662 1190 1320 3270 3880
2021-01-31 06:30 5.19 1900 4350 (1949) 250 (1981) 1070 271 316 359 419 662 1190 1320 3270 3880
2021-01-31 05:30 5.19 1900 4350 (1949) 250 (1981) 1070 271 316 359 419 662 1190 1320 3270 3880
2021-01-31 04:30 5.20 1900 4350 (1949) 250 (1981) 1070 271 316 359 419 662 1190 1320 3270 3880
2021-01-31 03:30 5.20 1900 4350 (1949) 250 (1981) 1070 271 316 359 419 662 1190 1320 3270 3880
2021-01-31 02:30 5.18 1890 4350 (1949) 250 (1981) 1070 271 316 359 419 662 1190 1320 3270 3880
2021-01-31 01:30 5.15 1870 4350 (1949) 250 (1981) 1070 271 316 359 419 662 1190 1320 3270 3880
2021-01-31 00:30 5.11 1840 4350 (1949) 250 (1981) 1070 271 316 359 419 662 1190 1320 3270 3880
2021-01-30 23:30 5.08 1820 4260 (1949) 232 (1956) 1080 272 315 363 425 659 1150 1590 3350 3780
2021-01-30 22:30 5.05 1790 4260 (1949) 232 (1956) 1080 272 315 363 425 659 1150 1590 3350 3780
2021-01-30 21:30 4.98 1750 4260 (1949) 232 (1956) 1080 272 315 363 425 659 1150 1590 3350 3780
2021-01-30 20:30 4.92 1700 4260 (1949) 232 (1956) 1080 272 315 363 425 659 1150 1590 3350 3780
2021-01-30 19:30 4.86 1660 4260 (1949) 232 (1956) 1080 272 315 363 425 659 1150 1590 3350 3780
2021-01-30 18:30 4.84 1650 4260 (1949) 232 (1956) 1080 272 315 363 425 659 1150 1590 3350 3780
2021-01-30 17:30 4.82 1630 4260 (1949) 232 (1956) 1080 272 315 363 425 659 1150 1590 3350 3780
2021-01-30 16:30 4.80 1620 4260 (1949) 232 (1956) 1080 272 315 363 425 659 1150 1590 3350 3780
2021-01-30 15:30 4.78 1610 4260 (1949) 232 (1956) 1080 272 315 363 425 659 1150 1590 3350 3780
2021-01-30 14:30 4.76 1590 4260 (1949) 232 (1956) 1080 272 315 363 425 659 1150 1590 3350 3780
2021-01-30 13:30 4.75 1590 4260 (1949) 232 (1956) 1080 272 315 363 425 659 1150 1590 3350 3780
2021-01-30 12:30 4.74 1580 4260 (1949) 232 (1956) 1080 272 315 363 425 659 1150 1590 3350 3780
2021-01-30 11:30 4.75 1590 4260 (1949) 232 (1956) 1080 272 315 363 425 659 1150 1590 3350 3780
2021-01-30 10:30 4.75 1590 4260 (1949) 232 (1956) 1080 272 315 363 425 659 1150 1590 3350 3780
2021-01-30 09:30 4.75 1590 4260 (1949) 232 (1956) 1080 272 315 363 425 659 1150 1590 3350 3780
2021-01-30 08:30 4.76 1590 4260 (1949) 232 (1956) 1080 272 315 363 425 659 1150 1590 3350 3780
2021-01-30 07:30 4.77 1600 4260 (1949) 232 (1956) 1080 272 315 363 425 659 1150 1590 3350 3780
2021-01-30 06:30 4.77 1600 4260 (1949) 232 (1956) 1080 272 315 363 425 659 1150 1590 3350 3780
2021-01-30 05:30 4.78 1610 4260 (1949) 232 (1956) 1080 272 315 363 425 659 1150 1590 3350 3780
2021-01-30 04:30 4.79 1610 4260 (1949) 232 (1956) 1080 272 315 363 425 659 1150 1590 3350 3780
2021-01-30 03:30 4.82 1630 4260 (1949) 232 (1956) 1080 272 315 363 425 659 1150 1590 3350 3780
2021-01-30 02:30 4.84 1650 4260 (1949) 232 (1956) 1080 272 315 363 425 659 1150 1590 3350 3780
2021-01-30 01:30 4.86 1660 4260 (1949) 232 (1956) 1080 272 315 363 425 659 1150 1590 3350 3780
2021-01-30 00:30 4.88 1680 4260 (1949) 232 (1956) 1080 272 315 363 425 659 1150 1590 3350 3780
2021-01-29 23:30 4.93 1710 3930 (1985) 211 (1956) 1080 275 314 382 439 663 1360 1500 3420 3570
2021-01-29 22:30 5.00 1760 3930 (1985) 211 (1956) 1080 275 314 382 439 663 1360 1500 3420 3570
2021-01-29 21:30 5.09 1820 3930 (1985) 211 (1956) 1080 275 314 382 439 663 1360 1500 3420 3570
2021-01-29 20:30 5.22 1920 3930 (1985) 211 (1956) 1080 275 314 382 439 663 1360 1500 3420 3570
2021-01-29 19:30 5.39 2040 3930 (1985) 211 (1956) 1080 275 314 382 439 663 1360 1500 3420 3570
2021-01-29 18:30 5.56 2170 3930 (1985) 211 (1956) 1080 275 314 382 439 663 1360 1500 3420 3570
2021-01-29 17:30 5.72 2290 3930 (1985) 211 (1956) 1080 275 314 382 439 663 1360 1500 3420 3570
2021-01-29 16:30 5.86 2400 3930 (1985) 211 (1956) 1080 275 314 382 439 663 1360 1500 3420 3570
2021-01-29 15:30 5.98 2500 3930 (1985) 211 (1956) 1080 275 314 382 439 663 1360 1500 3420 3570
2021-01-29 14:30 6.11 2610 3930 (1985) 211 (1956) 1080 275 314 382 439 663 1360 1500 3420 3570
2021-01-29 13:30 6.18 2670 3930 (1985) 211 (1956) 1080 275 314 382 439 663 1360 1500 3420 3570
2021-01-29 12:30 6.18 2670 3930 (1985) 211 (1956) 1080 275 314 382 439 663 1360 1500 3420 3570
2021-01-29 11:30 6.20 2680 3930 (1985) 211 (1956) 1080 275 314 382 439 663 1360 1500 3420 3570
2021-01-29 10:30 6.21 2690 3930 (1985) 211 (1956) 1080 275 314 382 439 663 1360 1500 3420 3570
2021-01-29 09:30 6.21 2690 3930 (1985) 211 (1956) 1080 275 314 382 439 663 1360 1500 3420 3570
2021-01-29 08:30 6.22 2700 3930 (1985) 211 (1956) 1080 275 314 382 439 663 1360 1500 3420 3570
2021-01-29 07:30 6.22 2700 3930 (1985) 211 (1956) 1080 275 314 382 439 663 1360 1500 3420 3570
2021-01-29 06:30 6.22 2700 3930 (1985) 211 (1956) 1080 275 314 382 439 663 1360 1500 3420 3570
2021-01-29 05:30 6.21 2690 3930 (1985) 211 (1956) 1080 275 314 382 439 663 1360 1500 3420 3570
2021-01-29 04:30 6.23 2710 3930 (1985) 211 (1956) 1080 275 314 382 439 663 1360 1500 3420 3570
2021-01-29 03:30 6.22 2700 3930 (1985) 211 (1956) 1080 275 314 382 439 663 1360 1500 3420 3570
2021-01-29 02:30 6.22 2700 3930 (1985) 211 (1956) 1080 275 314 382 439 663 1360 1500 3420 3570
2021-01-29 01:30 6.21 2690 3930 (1985) 211 (1956) 1080 275 314 382 439 663 1360 1500 3420 3570
2021-01-29 00:30 6.22 2700 3930 (1985) 211 (1956) 1080 275 314 382 439 663 1360 1500 3420 3570
2021-01-28 23:30 6.22 2700 3920 (1985) 206 (1956) 1210 275 286 399 439 688 1730 2220 3490 3590
2021-01-28 22:30 6.23 2710 3920 (1985) 206 (1956) 1210 275 286 399 439 688 1730 2220 3490 3590
2021-01-28 21:30 6.24 2710 3920 (1985) 206 (1956) 1210 275 286 399 439 688 1730 2220 3490 3590
2021-01-28 20:30 6.21 2690 3920 (1985) 206 (1956) 1210 275 286 399 439 688 1730 2220 3490 3590
2021-01-28 19:30 6.23 2710 3920 (1985) 206 (1956) 1210 275 286 399 439 688 1730 2220 3490 3590
2021-01-28 18:30 6.22 2700 3920 (1985) 206 (1956) 1210 275 286 399 439 688 1730 2220 3490 3590
2021-01-28 17:30 6.22 2700 3920 (1985) 206 (1956) 1210 275 286 399 439 688 1730 2220 3490 3590
2021-01-28 16:30 6.21 2690 3920 (1985) 206 (1956) 1210 275 286 399 439 688 1730 2220 3490 3590
2021-01-28 15:30 6.21 2690 3920 (1985) 206 (1956) 1210 275 286 399 439 688 1730 2220 3490 3590
2021-01-28 14:30 6.21 2690 3920 (1985) 206 (1956) 1210 275 286 399 439 688 1730 2220 3490 3590
2021-01-28 13:30 6.23 2710 3920 (1985) 206 (1956) 1210 275 286 399 439 688 1730 2220 3490 3590
2021-01-28 12:30 6.24 2710 3920 (1985) 206 (1956) 1210 275 286 399 439 688 1730 2220 3490 3590
2021-01-28 11:30 6.22 2700 3920 (1985) 206 (1956) 1210 275 286 399 439 688 1730 2220 3490 3590
2021-01-28 10:30 6.22 2700 3920 (1985) 206 (1956) 1210 275 286 399 439 688 1730 2220 3490 3590
2021-01-28 09:30 6.24 2710 3920 (1985) 206 (1956) 1210 275 286 399 439 688 1730 2220 3490 3590
2021-01-28 08:30 6.23 2710 3920 (1985) 206 (1956) 1210 275 286 399 439 688 1730 2220 3490 3590
2021-01-28 07:30 6.22 2700 3920 (1985) 206 (1956) 1210 275 286 399 439 688 1730 2220 3490 3590
2021-01-28 06:30 6.22 2700 3920 (1985) 206 (1956) 1210 275 286 399 439 688 1730 2220 3490 3590
2021-01-28 05:30 6.21 2690 3920 (1985) 206 (1956) 1210 275 286 399 439 688 1730 2220 3490 3590
2021-01-28 04:30 6.22 2700 3920 (1985) 206 (1956) 1210 275 286 399 439 688 1730 2220 3490 3590
2021-01-28 03:30 6.20 2680 3920 (1985) 206 (1956) 1210 275 286 399 439 688 1730 2220 3490 3590
2021-01-28 02:30 6.22 2700 3920 (1985) 206 (1956) 1210 275 286 399 439 688 1730 2220 3490 3590
2021-01-28 01:30 6.17 2660 3920 (1985) 206 (1956) 1210 275 286 399 439 688 1730 2220 3490 3590
2021-01-28 00:30 6.14 2630 3920 (1985) 206 (1956) 1210 275 286 399 439 688 1730 2220 3490 3590
2021-01-27 23:30 6.11 2610 3950 (1985) 204 (1956) 1290 274 281 409 434 668 2010 2420 3510 3700
2021-01-27 22:30 6.07 2570 3950 (1985) 204 (1956) 1290 274 281 409 434 668 2010 2420 3510 3700
2021-01-27 21:30 5.97 2490 3950 (1985) 204 (1956) 1290 274 281 409 434 668 2010 2420 3510 3700
2021-01-27 20:30 5.85 2400 3950 (1985) 204 (1956) 1290 274 281 409 434 668 2010 2420 3510 3700
2021-01-27 19:30 5.73 2300 3950 (1985) 204 (1956) 1290 274 281 409 434 668 2010 2420 3510 3700
2021-01-27 18:30 5.58 2190 3950 (1985) 204 (1956) 1290 274 281 409 434 668 2010 2420 3510 3700
2021-01-27 17:30 5.47 2100 3950 (1985) 204 (1956) 1290 274 281 409 434 668 2010 2420 3510 3700
2021-01-27 16:30 5.44 2080 3950 (1985) 204 (1956) 1290 274 281 409 434 668 2010 2420 3510 3700
2021-01-27 15:30 5.39 2040 3950 (1985) 204 (1956) 1290 274 281 409 434 668 2010 2420 3510 3700
2021-01-27 14:30 5.34 2010 3950 (1985) 204 (1956) 1290 274 281 409 434 668 2010 2420 3510 3700
2021-01-27 13:30 5.26 1950 3950 (1985) 204 (1956) 1290 274 281 409 434 668 2010 2420 3510 3700
2021-01-27 12:30 5.13 1850 3950 (1985) 204 (1956) 1290 274 281 409 434 668 2010 2420 3510 3700
2021-01-27 11:30 4.98 1750 3950 (1985) 204 (1956) 1290 274 281 409 434 668 2010 2420 3510 3700
2021-01-27 10:30 4.82 1630 3950 (1985) 204 (1956) 1290 274 281 409 434 668 2010 2420 3510 3700
2021-01-27 09:30 4.72 1570 3950 (1985) 204 (1956) 1290 274 281 409 434 668 2010 2420 3510 3700
2021-01-27 08:30 4.68 1540 3950 (1985) 204 (1956) 1290 274 281 409 434 668 2010 2420 3510 3700
2021-01-27 07:30 4.69 1550 3950 (1985) 204 (1956) 1290 274 281 409 434 668 2010 2420 3510 3700
2021-01-27 06:30 4.69 1550 3950 (1985) 204 (1956) 1290 274 281 409 434 668 2010 2420 3510 3700
2021-01-27 05:30 4.67 1530 3950 (1985) 204 (1956) 1290 274 281 409 434 668 2010 2420 3510 3700
2021-01-27 04:30 4.68 1540 3950 (1985) 204 (1956) 1290 274 281 409 434 668 2010 2420 3510 3700
2021-01-27 03:30 4.68 1540 3950 (1985) 204 (1956) 1290 274 281 409 434 668 2010 2420 3510 3700
2021-01-27 02:30 4.68 1540 3950 (1985) 204 (1956) 1290 274 281 409 434 668 2010 2420 3510 3700
2021-01-27 01:30 4.66 1530 3950 (1985) 204 (1956) 1290 274 281 409 434 668 2010 2420 3510 3700
2021-01-27 00:30 4.65 1520 3950 (1985) 204 (1956) 1290 274 281 409 434 668 2010 2420 3510 3700
2021-01-26 23:30 4.66 1530 3950 (1985) 204 (1956) 1310 277 299 398 416 699 1930 2600 3540 3710
2021-01-26 22:30 4.64 1510 3950 (1985) 204 (1956) 1310 277 299 398 416 699 1930 2600 3540 3710
2021-01-26 21:30 4.64 1510 3950 (1985) 204 (1956) 1310 277 299 398 416 699 1930 2600 3540 3710
2021-01-26 20:30 4.62 1500 3950 (1985) 204 (1956) 1310 277 299 398 416 699 1930 2600 3540 3710
2021-01-26 19:30 4.59 1480 3950 (1985) 204 (1956) 1310 277 299 398 416 699 1930 2600 3540 3710
2021-01-26 18:30 4.56 1460 3950 (1985) 204 (1956) 1310 277 299 398 416 699 1930 2600 3540 3710
2021-01-26 17:30 4.52 1430 3950 (1985) 204 (1956) 1310 277 299 398 416 699 1930 2600 3540 3710
2021-01-26 16:30 4.48 1410 3950 (1985) 204 (1956) 1310 277 299 398 416 699 1930 2600 3540 3710
2021-01-26 15:30 4.39 1350 3950 (1985) 204 (1956) 1310 277 299 398 416 699 1930 2600 3540 3710
2021-01-26 14:30 4.29 1290 3950 (1985) 204 (1956) 1310 277 299 398 416 699 1930 2600 3540 3710
2021-01-26 13:30 4.15 1200 3950 (1985) 204 (1956) 1310 277 299 398 416 699 1930 2600 3540 3710
2021-01-26 12:30 3.96 1090 3950 (1985) 204 (1956) 1310 277 299 398 416 699 1930 2600 3540 3710
2021-01-26 11:30 3.72 952 3950 (1985) 204 (1956) 1310 277 299 398 416 699 1930 2600 3540 3710
2021-01-26 10:30 3.48 822 3950 (1985) 204 (1956) 1310 277 299 398 416 699 1930 2600 3540 3710
2021-01-26 09:30 3.35 756 3950 (1985) 204 (1956) 1310 277 299 398 416 699 1930 2600 3540 3710
2021-01-26 08:30 3.35 756 3950 (1985) 204 (1956) 1310 277 299 398 416 699 1930 2600 3540 3710
2021-01-26 07:30 3.36 761 3950 (1985) 204 (1956) 1310 277 299 398 416 699 1930 2600 3540 3710
2021-01-26 06:30 3.38 771 3950 (1985) 204 (1956) 1310 277 299 398 416 699 1930 2600 3540 3710
2021-01-26 05:30 3.39 776 3950 (1985) 204 (1956) 1310 277 299 398 416 699 1930 2600 3540 3710
2021-01-26 04:30 3.42 791 3950 (1985) 204 (1956) 1310 277 299 398 416 699 1930 2600 3540 3710
2021-01-26 03:30 3.43 797 3950 (1985) 204 (1956) 1310 277 299 398 416 699 1930 2600 3540 3710
2021-01-26 02:30 3.44 802 3950 (1985) 204 (1956) 1310 277 299 398 416 699 1930 2600 3540 3710
2021-01-26 01:30 3.45 807 3950 (1985) 204 (1956) 1310 277 299 398 416 699 1930 2600 3540 3710
2021-01-26 00:30 3.46 812 3950 (1985) 204 (1956) 1310 277 299 398 416 699 1930 2600 3540 3710

A total of 729 rows are displayed for years 1949 through 2020.